| time (UTC) | temp C | wind direction | speed KPH | gust KPH | rain 1hr cm | rain 24hr cm | rain mn cm | humidity % | barometer mb |
| 20260506233032 | 28 | 115 | 3.2 | 11.3 | 0.00 | 0.00 | 0.00 | 74 | 1009.2 |
| 20260506232939 | 28 | 115 | 4.8 | 12.9 | 0.00 | 0.00 | 0.00 | 73 | 1009.2 |
| 20260506232829 | 28 | 112 | 4.8 | 12.9 | 0.00 | 0.00 | 0.00 | 73 | 1009.2 |
| 20260506232725 | 28 | 130 | 3.2 | 14.5 | 0.00 | 0.00 | 0.00 | 73 | 1009.2 |
| 20260506232659 | 28 | 146 | 3.2 | 14.5 | 0.00 | 0.00 | 0.00 | 73 | 1009.2 |
| 20260506232515 | 28 | 159 | 4.8 | 14.5 | 0.00 | 0.00 | 0.00 | 73 | 1009.2 |
| 20260506232429 | 28 | 145 | 4.8 | 14.5 | 0.00 | 0.00 | 0.00 | 73 | 1009.2 |
| 20260506232316 | 28 | 191 | 4.8 | 14.5 | 0.00 | 0.00 | 0.00 | 73 | 1009.1 |
| 20260506232242 | 28 | 103 | 4.8 | 14.5 | 0.00 | 0.00 | 0.00 | 73 | 1009.1 |
| 20260506232144 | 28 | 101 | 4.8 | 14.5 | 0.00 | 0.00 | 0.00 | 73 | 1009.1 |
| 20260506232020 | 28 | 179 | 4.8 | 14.5 | 0.00 | 0.00 | 0.00 | 73 | 1009.1 |
| 20260506231937 | 28 | 154 | 4.8 | 14.5 | 0.00 | 0.00 | 0.00 | 73 | 1009.2 |
| 20260506231821 | 28 | 127 | 6.4 | 14.5 | 0.00 | 0.00 | 0.00 | 73 | 1009.2 |
| 20260506231719 | 28 | 125 | 8.0 | 14.5 | 0.00 | 0.00 | 0.00 | 73 | 1009.2 |
| 20260506231653 | 28 | 176 | 6.4 | 14.5 | 0.00 | 0.00 | 0.00 | 73 | 1009.2 |
| 20260506231525 | 28 | 159 | 3.2 | 12.9 | 0.00 | 0.00 | 0.00 | 73 | 1009.2 |
| 20260506231438 | 28 | 131 | 1.6 | 12.9 | 0.00 | 0.00 | 0.00 | 73 | 1009.2 |
| 20260506231327 | 28 | 136 | 3.2 | 12.9 | 0.00 | 0.00 | 0.00 | 73 | 1009.2 |
| 20260506231213 | 28 | 136 | 4.8 | 12.9 | 0.00 | 0.00 | 0.00 | 73 | 1009.2 |
| 20260506231136 | 28 | 168 | 3.2 | 12.9 | 0.00 | 0.00 | 0.00 | 73 | 1009.2 |
| 20260506231031 | 28 | 158 | 3.2 | 12.9 | 0.00 | 0.00 | 0.00 | 72 | 1009.2 |
| 20260506230919 | 28 | 184 | 4.8 | 12.9 | 0.00 | 0.00 | 0.00 | 72 | 1009.2 |
| 20260506230853 | 28 | 183 | 4.8 | 12.9 | 0.00 | 0.00 | 0.00 | 73 | 1009.1 |
| 20260506230721 | 28 | 123 | 4.8 | 12.9 | 0.00 | 0.00 | 0.00 | 72 | 1009.1 |
| 20260506230703 | 28 | 132 | 3.2 | 16.1 | 0.00 | 0.00 | 0.00 | 72 | 1009.1 |
| 20260506230519 | 28 | 128 | 1.6 | 16.1 | 0.00 | 0.00 | 0.00 | 73 | 1009.1 |
| 20260506230427 | 28 | 120 | 1.6 | 16.1 | 0.00 | 0.00 | 0.00 | 73 | 1009.1 |
| 20260506230333 | 28 | 120 | 1.6 | 16.1 | 0.00 | 0.00 | 0.00 | 72 | 1009.1 |
| 20260506230214 | 28 | 142 | 4.8 | 16.1 | 0.00 | 0.00 | 0.00 | 72 | 1009.0 |
| 20260506230127 | 29 | 140 | 6.4 | 16.1 | 0.00 | 0.00 | 0.00 | 72 | 1009.0 |
| 20260506230021 | 29 | 167 | 6.4 | 16.1 | 0.00 | 0.00 | 0.00 | 72 | 1009.0 |
| 20260506225934 | 29 | 126 | 6.4 | 16.1 | 0.00 | 0.00 | 0.00 | 72 | 1009.1 |
| 20260506225819 | 29 | 177 | 6.4 | 16.1 | 0.00 | 0.00 | 0.00 | 72 | 1009.0 |
| 20260506225715 | 29 | 180 | 4.8 | 12.9 | 0.00 | 0.00 | 0.00 | 72 | 1009.0 |
| 20260506225631 | 29 | 137 | 6.4 | 12.9 | 0.00 | 0.00 | 0.00 | 72 | 1009.0 |
| 20260506225526 | 29 | 184 | 4.8 | 12.9 | 0.00 | 0.00 | 0.00 | 72 | 1009.0 |
| 20260506225433 | 29 | 228 | 3.2 | 9.7 | 0.00 | 0.00 | 0.00 | 72 | 1009.1 |
| 20260506225346 | 29 | 148 | 3.2 | 9.7 | 0.00 | 0.00 | 0.00 | 72 | 1009.1 |
| 20260506225221 | 29 | 162 | 3.2 | 12.9 | 0.00 | 0.00 | 0.00 | 72 | 1009.1 |
| 20260506225153 | 29 | 179 | 3.2 | 12.9 | 0.00 | 0.00 | 0.00 | 72 | 1009.1 |
| 20260506225055 | 29 | 152 | 3.2 | 12.9 | 0.00 | 0.00 | 0.00 | 71 | 1009.1 |
| 20260506224924 | 29 | 221 | 1.6 | 16.1 | 0.00 | 0.00 | 0.00 | 72 | 1009.1 |
| 20260506224831 | 29 | 138 | 3.2 | 16.1 | 0.00 | 0.00 | 0.00 | 71 | 1009.1 |
| 20260506224717 | 29 | 167 | 3.2 | 16.1 | 0.00 | 0.00 | 0.00 | 71 | 1009.1 |
| 20260506224641 | 29 | 167 | 4.8 | 16.1 | 0.00 | 0.00 | 0.00 | 71 | 1009.1 |
| 20260506224517 | 29 | 118 | 4.8 | 16.1 | 0.00 | 0.00 | 0.00 | 71 | 1009.1 |
| 20260506224428 | 29 | 136 | 4.8 | 16.1 | 0.00 | 0.00 | 0.00 | 71 | 1009.1 |
| 20260506224314 | 29 | 121 | 4.8 | 16.1 | 0.00 | 0.00 | 0.00 | 71 | 1009.2 |
| 20260506224240 | 29 | 163 | 6.4 | 16.1 | 0.00 | 0.00 | 0.00 | 71 | 1009.2 |
| 20260506224151 | 29 | 165 | 6.4 | 16.1 | 0.00 | 0.00 | 0.00 | 71 | 1009.1 |
| 20260506224026 | 29 | 122 | 4.8 | 14.5 | 0.00 | 0.00 | 0.00 | 71 | 1009.2 |
| 20260506223931 | 29 | 154 | 4.8 | 14.5 | 0.00 | 0.00 | 0.00 | 71 | 1009.2 |
| 20260506223822 | 29 | 96 | 3.2 | 14.5 | 0.00 | 0.00 | 0.00 | 71 | 1009.2 |
| 20260506223718 | 29 | 121 | 1.6 | 14.5 | 0.00 | 0.00 | 0.00 | 71 | 1009.2 |
| 20260506223631 | 29 | 121 | 1.6 | 14.5 | 0.00 | 0.00 | 0.00 | 71 | 1009.2 |
| 20260506223528 | 29 | 120 | 4.8 | 14.5 | 0.00 | 0.00 | 0.00 | 70 | 1009.2 |
| 20260506223414 | 29 | 137 | 6.4 | 14.5 | 0.00 | 0.00 | 0.00 | 71 | 1009.2 |
| 20260506223331 | 29 | 137 | 6.4 | 14.5 | 0.00 | 0.00 | 0.00 | 71 | 1009.2 |
| 20260506223218 | 29 | 148 | 4.8 | 14.5 | 0.00 | 0.00 | 0.00 | 71 | 1009.1 |
| 20260506223202 | 29 | 146 | 3.2 | 14.5 | 0.00 | 0.00 | 0.00 | 71 | 1009.2 |
| 20260506223018 | 29 | 130 | 3.2 | 14.5 | 0.00 | 0.00 | 0.00 | 71 | 1009.2 |
| 20260506222942 | 29 | 128 | 4.8 | 14.5 | 0.00 | 0.00 | 0.00 | 71 | 1009.2 |
| 20260506222834 | 29 | 150 | 4.8 | 14.5 | 0.00 | 0.00 | 0.00 | 71 | 1009.2 |
| 20260506222734 | 29 | 177 | 4.8 | 12.9 | 0.00 | 0.00 | 0.00 | 71 | 1009.2 |
| 20260506222649 | 29 | 166 | 4.8 | 14.5 | 0.00 | 0.00 | 0.00 | 71 | 1009.2 |
| 20260506222523 | 29 | 123 | 4.8 | 11.3 | 0.00 | 0.00 | 0.00 | 71 | 1009.2 |
| 20260506222435 | 29 | 165 | 3.2 | 11.3 | 0.00 | 0.00 | 0.00 | 71 | 1009.3 |
| 20260506222322 | 29 | 190 | 3.2 | 11.3 | 0.00 | 0.00 | 0.00 | 71 | 1009.3 |
| 20260506222239 | 29 | 117 | 3.2 | 6.4 | 0.00 | 0.00 | 0.00 | 71 | 1009.4 |
| 20260506222150 | 29 | 116 | 3.2 | 6.4 | 0.00 | 0.00 | 0.00 | 71 | 1009.3 |
| 20260506222031 | 29 | 160 | 1.6 | 12.9 | 0.00 | 0.00 | 0.00 | 71 | 1009.4 |
| 20260506221921 | 29 | 139 | 1.6 | 12.9 | 0.00 | 0.00 | 0.00 | 70 | 1009.4 |
| 20260506221829 | 29 | 136 | 1.6 | 12.9 | 0.00 | 0.00 | 0.00 | 70 | 1009.4 |
| 20260506221714 | 30 | 135 | 1.6 | 12.9 | 0.00 | 0.00 | 0.00 | 70 | 1009.4 |
| 20260506221658 | 30 | 101 | 0.0 | 12.9 | 0.00 | 0.00 | 0.00 | 70 | 1009.4 |
| 20260506221540 | 30 | 101 | 1.6 | 12.9 | 0.00 | 0.00 | 0.00 | 70 | 1009.4 |
| 20260506221426 | 30 | 101 | 3.2 | 12.9 | 0.00 | 0.00 | 0.00 | 70 | 1009.4 |
| 20260506221318 | 30 | 101 | 4.8 | 12.9 | 0.00 | 0.00 | 0.00 | 69 | 1009.5 |
| 20260506221222 | 30 | 145 | 4.8 | 12.9 | 0.00 | 0.00 | 0.00 | 70 | 1009.4 |
| 20260506221145 | 30 | 125 | 3.2 | 11.3 | 0.00 | 0.00 | 0.00 | 70 | 1009.4 |
| 20260506221021 | 30 | 120 | 3.2 | 9.7 | 0.00 | 0.00 | 0.00 | 70 | 1009.4 |
| 20260506220950 | 30 | 130 | 3.2 | 8.0 | 0.00 | 0.00 | 0.00 | 70 | 1009.4 |
| 20260506220819 | 30 | 130 | 3.2 | 8.0 | 0.00 | 0.00 | 0.00 | 70 | 1009.4 |
| 20260506220724 | 30 | 126 | 3.2 | 11.3 | 0.00 | 0.00 | 0.00 | 70 | 1009.3 |
| 20260506220629 | 30 | 132 | 3.2 | 11.3 | 0.00 | 0.00 | 0.00 | 70 | 1009.4 |
| 20260506220551 | 30 | 138 | 3.2 | 11.3 | 0.00 | 0.00 | 0.00 | 69 | 1009.3 |
| 20260506220438 | 30 | 135 | 3.2 | 11.3 | 0.00 | 0.00 | 0.00 | 70 | 1009.2 |
| 20260506220350 | 30 | 149 | 3.2 | 11.3 | 0.00 | 0.00 | 0.00 | 70 | 1009.3 |
| 20260506220214 | 30 | 161 | 3.2 | 16.1 | 0.00 | 0.00 | 0.00 | 70 | 1009.2 |
| 20260506220142 | 30 | 161 | 3.2 | 16.1 | 0.00 | 0.00 | 0.00 | 70 | 1009.2 |
| 20260506220017 | 30 | 128 | 3.2 | 16.1 | 0.00 | 0.00 | 0.00 | 70 | 1009.4 |
| 20260506215951 | 30 | 127 | 3.2 | 16.1 | 0.00 | 0.00 | 0.00 | 70 | 1009.3 |
| 20260506215836 | 30 | 116 | 3.2 | 16.1 | 0.00 | 0.00 | 0.00 | 70 | 1009.3 |
| 20260506215721 | 30 | 148 | 1.6 | 16.1 | 0.00 | 0.00 | 0.00 | 70 | 1009.3 |
| 20260506215644 | 30 | 148 | 1.6 | 16.1 | 0.00 | 0.00 | 0.00 | 70 | 1009.3 |
| 20260506215543 | 30 | 177 | 1.6 | 16.1 | 0.00 | 0.00 | 0.00 | 70 | 1009.4 |
| 20260506215435 | 30 | 177 | 6.4 | 16.1 | 0.00 | 0.00 | 0.00 | 70 | 1009.3 |
| 20260506215321 | 30 | 163 | 8.0 | 16.1 | 0.00 | 0.00 | 0.00 | 70 | 1009.4 |
| 20260506215239 | 30 | 162 | 4.8 | 14.5 | 0.00 | 0.00 | 0.00 | 70 | 1009.3 |
| 20260506215150 | 30 | 164 | 4.8 | 14.5 | 0.00 | 0.00 | 0.00 | 70 | 1009.3 |
| 20260506215032 | 30 | 123 | 4.8 | 14.5 | 0.00 | 0.00 | 0.00 | 70 | 1009.3 |
| 20260506214923 | 30 | 125 | 4.8 | 14.5 | 0.00 | 0.00 | 0.00 | 70 | 1009.3 |
| 20260506214851 | 30 | 138 | 6.4 | 14.5 | 0.00 | 0.00 | 0.00 | 70 | 1009.3 |
| 20260506214717 | 30 | 158 | 6.4 | 14.5 | 0.00 | 0.00 | 0.00 | 70 | 1009.3 |
| 20260506214640 | 30 | 196 | 4.8 | 14.5 | 0.00 | 0.00 | 0.00 | 70 | 1009.4 |
| 20260506214601 | 30 | 165 | 4.8 | 12.9 | 0.00 | 0.00 | 0.00 | 70 | 1009.4 |
| 20260506214426 | 30 | 143 | 4.8 | 12.9 | 0.00 | 0.00 | 0.00 | 70 | 1009.4 |
| 20260506214315 | 30 | 169 | 1.6 | 12.9 | 0.00 | 0.00 | 0.00 | 71 | 1009.4 |
| 20260506214220 | 30 | 126 | 1.6 | 12.9 | 0.00 | 0.00 | 0.00 | 71 | 1009.4 |
| 20260506214144 | 30 | 126 | 3.2 | 12.9 | 0.00 | 0.00 | 0.00 | 71 | 1009.4 |
| 20260506214019 | 30 | 136 | 3.2 | 12.9 | 0.00 | 0.00 | 0.00 | 71 | 1009.4 |
| 20260506213925 | 30 | 184 | 4.8 | 12.9 | 0.00 | 0.00 | 0.00 | 70 | 1009.5 |
| 20260506213830 | 30 | 200 | 6.4 | 12.9 | 0.00 | 0.00 | 0.00 | 70 | 1009.5 |
| 20260506213728 | 30 | 132 | 6.4 | 12.9 | 0.00 | 0.00 | 0.00 | 70 | 1009.5 |
| 20260506213644 | 30 | 130 | 4.8 | 11.3 | 0.00 | 0.00 | 0.00 | 70 | 1009.4 |
| 20260506213546 | 30 | 129 | 3.2 | 8.0 | 0.00 | 0.00 | 0.00 | 70 | 1009.5 |
| 20260506213452 | 30 | 128 | 3.2 | 14.5 | 0.00 | 0.00 | 0.00 | 70 | 1009.5 |
| 20260506213344 | 30 | 138 | 3.2 | 14.5 | 0.00 | 0.00 | 0.00 | 70 | 1009.5 |
| 20260506213240 | 30 | 136 | 4.8 | 14.5 | 0.00 | 0.00 | 0.00 | 70 | 1009.4 |
| 20260506213152 | 30 | 156 | 4.8 | 14.5 | 0.00 | 0.00 | 0.00 | 70 | 1009.5 |
| 20260506213038 | 30 | 191 | 3.2 | 14.5 | 0.00 | 0.00 | 0.00 | 71 | 1009.5 |
| 20260506212923 | 30 | 140 | 3.2 | 14.5 | 0.00 | 0.00 | 0.00 | 71 | 1009.5 |
| 20260506212829 | 30 | 117 | 3.2 | 14.5 | 0.00 | 0.00 | 0.00 | 71 | 1009.5 |
| 20260506212717 | 30 | 148 | 3.2 | 14.5 | 0.00 | 0.00 | 0.00 | 71 | 1009.5 |
| 20260506212640 | 30 | 146 | 4.8 | 14.5 | 0.00 | 0.00 | 0.00 | 71 | 1009.5 |
| 20260506212514 | 30 | 135 | 4.8 | 14.5 | 0.00 | 0.00 | 0.00 | 71 | 1009.5 |
| 20260506212425 | 30 | 181 | 3.2 | 12.9 | 0.00 | 0.00 | 0.00 | 71 | 1009.5 |
| 20260506212339 | 30 | 160 | 1.6 | 12.9 | 0.00 | 0.00 | 0.00 | 71 | 1009.5 |
| 20260506212225 | 30 | 182 | 1.6 | 12.9 | 0.00 | 0.00 | 0.00 | 71 | 1009.6 |
| 20260506212140 | 30 | 182 | 1.6 | 12.9 | 0.00 | 0.00 | 0.00 | 71 | 1009.5 |
| 20260506212043 | 29 | 118 | 1.6 | 12.9 | 0.00 | 0.00 | 0.00 | 71 | 1009.5 |
| 20260506211928 | 30 | 144 | 1.6 | 12.9 | 0.00 | 0.00 | 0.00 | 71 | 1009.5 |
| 20260506211820 | 30 | 143 | 4.8 | 12.9 | 0.00 | 0.00 | 0.00 | 71 | 1009.5 |
| 20260506211717 | 30 | 150 | 4.8 | 12.9 | 0.00 | 0.00 | 0.00 | 71 | 1009.5 |
| 20260506211628 | 30 | 122 | 4.8 | 12.9 | 0.00 | 0.00 | 0.00 | 71 | 1009.5 |
| 20260506211524 | 30 | 160 | 1.6 | 11.3 | 0.00 | 0.00 | 0.00 | 72 | 1009.6 |
| 20260506211436 | 30 | 141 | 1.6 | 16.1 | 0.00 | 0.00 | 0.00 | 72 | 1009.5 |
| 20260506211326 | 30 | 144 | 1.6 | 16.1 | 0.00 | 0.00 | 0.00 | 71 | 1009.6 |
| 20260506211224 | 30 | 144 | 3.2 | 16.1 | 0.00 | 0.00 | 0.00 | 72 | 1009.6 |
| 20260506211136 | 30 | 139 | 3.2 | 16.1 | 0.00 | 0.00 | 0.00 | 71 | 1009.6 |
| 20260506211032 | 30 | 167 | 3.2 | 16.1 | 0.00 | 0.00 | 0.00 | 71 | 1009.6 |
| 20260506210918 | 30 | 192 | 4.8 | 16.1 | 0.00 | 0.00 | 0.00 | 71 | 1009.6 |
| 20260506210829 | 30 | 150 | 3.2 | 16.1 | 0.00 | 0.00 | 0.00 | 71 | 1009.6 |
| 20260506210714 | 30 | 134 | 4.8 | 16.1 | 0.00 | 0.00 | 0.00 | 71 | 1009.6 |
| 20260506210637 | 30 | 163 | 4.8 | 16.1 | 0.00 | 0.00 | 0.00 | 71 | 1009.6 |
| 20260506210539 | 30 | 140 | 6.4 | 16.1 | 0.00 | 0.00 | 0.00 | 71 | 1009.7 |
| 20260506210444 | 30 | 173 | 4.8 | 9.7 | 0.00 | 0.00 | 0.00 | 71 | 1009.7 |
| 20260506210357 | 30 | 157 | 4.8 | 9.7 | 0.00 | 0.00 | 0.00 | 72 | 1009.7 |
| 20260506210217 | 30 | 171 | 3.2 | 14.5 | 0.00 | 0.00 | 0.00 | 71 | 1009.7 |
| 20260506210150 | 30 | 138 | 3.2 | 17.7 | 0.00 | 0.00 | 0.00 | 71 | 1009.6 |
| 20260506210024 | 30 | 162 | 1.6 | 17.7 | 0.00 | 0.00 | 0.00 | 71 | 1009.7 |
| 20260506205929 | 30 | 159 | 1.6 | 17.7 | 0.00 | 0.00 | 0.00 | 71 | 1009.7 |
| 20260506205814 | 30 | 157 | 1.6 | 17.7 | 0.00 | 0.00 | 0.00 | 71 | 1009.7 |
| 20260506205728 | 30 | 179 | 1.6 | 17.7 | 0.00 | 0.00 | 0.00 | 71 | 1009.7 |
| 20260506205627 | 30 | 176 | 3.2 | 17.7 | 0.00 | 0.00 | 0.00 | 71 | 1009.7 |
| 20260506205530 | 30 | 140 | 4.8 | 17.7 | 0.00 | 0.00 | 0.00 | 71 | 1009.8 |
| 20260506205417 | 30 | 124 | 4.8 | 17.7 | 0.00 | 0.00 | 0.00 | 71 | 1009.7 |
| 20260506205322 | 30 | 146 | 4.8 | 17.7 | 0.00 | 0.00 | 0.00 | 71 | 1009.7 |
| 20260506205234 | 30 | 148 | 4.8 | 17.7 | 0.00 | 0.00 | 0.00 | 71 | 1009.8 |
| 20260506204719 | 30 | 186 | 6.4 | 14.5 | 0.00 | 0.00 | 0.00 | 71 | 1009.9 |
| 20260506204642 | 30 | 174 | 6.4 | 14.5 | 0.00 | 0.00 | 0.00 | 71 | 1009.9 |
| 20260506204521 | 30 | 138 | 4.8 | 14.5 | 0.00 | 0.00 | 0.00 | 71 | 1009.8 |
| 20260506204427 | 30 | 167 | 4.8 | 12.9 | 0.00 | 0.00 | 0.00 | 71 | 1009.9 |
| 20260506204333 | 30 | 120 | 4.8 | 12.9 | 0.00 | 0.00 | 0.00 | 70 | 1009.8 |
| 20260506204219 | 30 | 115 | 3.2 | 12.9 | 0.00 | 0.00 | 0.00 | 70 | 1009.9 |
| 20260506204141 | 30 | 145 | 4.8 | 12.9 | 0.00 | 0.00 | 0.00 | 70 | 1009.9 |
| 20260506204020 | 30 | 150 | 8.0 | 12.9 | 0.00 | 0.00 | 0.00 | 69 | 1009.9 |
| 20260506203953 | 30 | 127 | 6.4 | 12.9 | 0.00 | 0.00 | 0.00 | 70 | 1009.9 |
| 20260506203819 | 30 | 183 | 3.2 | 11.3 | 0.00 | 0.00 | 0.00 | 70 | 1009.9 |
| 20260506203717 | 30 | 166 | 3.2 | 11.3 | 0.00 | 0.00 | 0.00 | 70 | 1009.9 |
| 20260506203628 | 30 | 144 | 3.2 | 11.3 | 0.00 | 0.00 | 0.00 | 69 | 1009.9 |
| 20260506203522 | 30 | 133 | 4.8 | 16.1 | 0.00 | 0.00 | 0.00 | 69 | 1009.9 |
| 20260506203413 | 30 | 130 | 3.2 | 16.1 | 0.00 | 0.00 | 0.00 | 70 | 1009.9 |
| 20260506203321 | 30 | 151 | 1.6 | 16.1 | 0.00 | 0.00 | 0.00 | 70 | 1009.9 |
| 20260506203223 | 30 | 131 | 1.6 | 16.1 | 0.00 | 0.00 | 0.00 | 70 | 1009.9 |
| 20260506203128 | 30 | 124 | 3.2 | 16.1 | 0.00 | 0.00 | 0.00 | 70 | 1009.8 |
| 20260506203029 | 30 | 140 | 4.8 | 16.1 | 0.00 | 0.00 | 0.00 | 70 | 1009.9 |
| 20260506202939 | 30 | 135 | 3.2 | 16.1 | 0.00 | 0.00 | 0.00 | 70 | 1009.9 |
| 20260506202824 | 30 | 157 | 1.6 | 16.1 | 0.00 | 0.00 | 0.00 | 70 | 1009.9 |
| 20260506202720 | 30 | 157 | 4.8 | 16.1 | 0.00 | 0.00 | 0.00 | 70 | 1009.8 |
| 20260506202652 | 30 | 132 | 4.8 | 16.1 | 0.00 | 0.00 | 0.00 | 70 | 1009.8 |
| 20260506202532 | 30 | 163 | 3.2 | 11.3 | 0.00 | 0.00 | 0.00 | 70 | 1009.8 |
| 20260506202418 | 30 | 142 | 3.2 | 12.9 | 0.00 | 0.00 | 0.00 | 70 | 1009.9 |
| 20260506202328 | 30 | 209 | 4.8 | 12.9 | 0.00 | 0.00 | 0.00 | 70 | 1009.9 |
| 20260506202224 | 30 | 119 | 4.8 | 12.9 | 0.00 | 0.00 | 0.00 | 70 | 1010.0 |
| 20260506202135 | 30 | 163 | 3.2 | 12.9 | 0.00 | 0.00 | 0.00 | 70 | 1010.0 |
| 20260506202030 | 30 | 152 | 1.6 | 12.9 | 0.00 | 0.00 | 0.00 | 70 | 1010.1 |
| 20260506201916 | 30 | 181 | 1.6 | 12.9 | 0.00 | 0.00 | 0.00 | 69 | 1010.0 |
| 20260506201830 | 30 | 181 | 3.2 | 12.9 | 0.00 | 0.00 | 0.00 | 69 | 1010.0 |
| 20260506201740 | 30 | 178 | 6.4 | 12.9 | 0.00 | 0.00 | 0.00 | 68 | 1010.1 |
| 20260506201641 | 30 | 167 | 6.4 | 12.9 | 0.00 | 0.00 | 0.00 | 68 | 1010.1 |
| 20260506201517 | 30 | 161 | 6.4 | 11.3 | 0.00 | 0.00 | 0.00 | 68 | 1010.1 |
| 20260506201421 | 30 | 144 | 4.8 | 12.9 | 0.00 | 0.00 | 0.00 | 68 | 1010.1 |
| 20260506201334 | 30 | 128 | 4.8 | 12.9 | 0.00 | 0.00 | 0.00 | 68 | 1010.1 |
| 20260506201214 | 30 | 127 | 4.8 | 17.7 | 0.00 | 0.00 | 0.00 | 67 | 1010.1 |
| 20260506201148 | 30 | 137 | 4.8 | 17.7 | 0.00 | 0.00 | 0.00 | 67 | 1010.1 |
| 20260506201022 | 31 | 142 | 4.8 | 17.7 | 0.00 | 0.00 | 0.00 | 68 | 1010.2 |
| 20260506200929 | 31 | 151 | 3.2 | 17.7 | 0.00 | 0.00 | 0.00 | 68 | 1010.2 |
| 20260506200815 | 30 | 146 | 3.2 | 17.7 | 0.00 | 0.00 | 0.00 | 69 | 1010.2 |
| 20260506200720 | 30 | 126 | 4.8 | 17.7 | 0.00 | 0.00 | 0.00 | 68 | 1010.2 |
| 20260506200626 | 30 | 165 | 6.4 | 17.7 | 0.00 | 0.00 | 0.00 | 68 | 1010.2 |
| 20260506200520 | 30 | 117 | 8.0 | 17.7 | 0.00 | 0.00 | 0.00 | 68 | 1010.2 |
| 20260506200453 | 30 | 151 | 8.0 | 17.7 | 0.00 | 0.00 | 0.00 | 68 | 1010.3 |
| 20260506200318 | 30 | 145 | 6.4 | 12.9 | 0.00 | 0.00 | 0.00 | 68 | 1010.3 |
| 20260506200217 | 30 | 133 | 6.4 | 16.1 | 0.00 | 0.00 | 0.00 | 68 | 1010.3 |
| 20260506200127 | 30 | 177 | 6.4 | 16.1 | 0.00 | 0.00 | 0.00 | 67 | 1010.3 |
| 20260506200027 | 31 | 78 | 4.8 | 17.7 | 0.00 | 0.00 | 0.00 | 68 | 1010.4 |
| 20260506195913 | 31 | 190 | 3.2 | 17.7 | 0.00 | 0.00 | 0.00 | 68 | 1010.4 |
| 20260506195846 | 31 | 161 | 3.2 | 17.7 | 0.00 | 0.00 | 0.00 | 68 | 1010.4 |
| 20260506195721 | 30 | 148 | 3.2 | 17.7 | 0.00 | 0.00 | 0.00 | 69 | 1010.3 |
| 20260506195653 | 30 | 148 | 3.2 | 17.7 | 0.00 | 0.00 | 0.00 | 69 | 1010.4 |
| 20260506195532 | 30 | 175 | 4.8 | 17.7 | 0.00 | 0.00 | 0.00 | 68 | 1010.4 |
| 20260506195422 | 30 | 134 | 6.4 | 17.7 | 0.00 | 0.00 | 0.00 | 68 | 1010.4 |
| 20260506195328 | 30 | 136 | 6.4 | 17.7 | 0.00 | 0.00 | 0.00 | 68 | 1010.4 |
| 20260506195213 | 30 | 150 | 8.0 | 17.7 | 0.00 | 0.00 | 0.00 | 68 | 1010.5 |
| 20260506195136 | 30 | 165 | 8.0 | 17.7 | 0.00 | 0.00 | 0.00 | 68 | 1010.5 |
| 20260506195033 | 30 | 136 | 6.4 | 17.7 | 0.00 | 0.00 | 0.00 | 68 | 1010.6 |
| 20260506194919 | 30 | 137 | 6.4 | 14.5 | 0.00 | 0.00 | 0.00 | 68 | 1010.6 |
| 20260506194836 | 30 | 120 | 6.4 | 17.7 | 0.00 | 0.00 | 0.00 | 68 | 1010.6 |
| 20260506194722 | 30 | 123 | 3.2 | 14.5 | 0.00 | 0.00 | 0.00 | 69 | 1010.6 |
| 20260506194645 | 30 | 150 | 3.2 | 14.5 | 0.00 | 0.00 | 0.00 | 69 | 1010.5 |
| 20260506194521 | 30 | 123 | 6.4 | 14.5 | 0.00 | 0.00 | 0.00 | 69 | 1010.5 |
| 20260506194428 | 30 | 140 | 6.4 | 14.5 | 0.00 | 0.00 | 0.00 | 69 | 1010.6 |
| 20260506194313 | 30 | 171 | 4.8 | 14.5 | 0.00 | 0.00 | 0.00 | 70 | 1010.6 |
| 20260506194216 | 30 | 134 | 6.4 | 14.5 | 0.00 | 0.00 | 0.00 | 69 | 1010.6 |
| 20260506194127 | 30 | 130 | 6.4 | 14.5 | 0.00 | 0.00 | 0.00 | 69 | 1010.7 |
| 20260506194021 | 30 | 174 | 6.4 | 17.7 | 0.00 | 0.00 | 0.00 | 70 | 1010.8 |
| 20260506193935 | 30 | 173 | 4.8 | 16.1 | 0.00 | 0.00 | 0.00 | 70 | 1010.7 |
| 20260506193820 | 30 | 178 | 6.4 | 16.1 | 0.00 | 0.00 | 0.00 | 70 | 1010.8 |
| 20260506193721 | 30 | 175 | 6.4 | 16.1 | 0.00 | 0.00 | 0.00 | 70 | 1010.8 |
| 20260506193634 | 30 | 114 | 6.4 | 16.1 | 0.00 | 0.00 | 0.00 | 70 | 1010.9 |
| 20260506193550 | 30 | 174 | 4.8 | 16.1 | 0.00 | 0.00 | 0.00 | 69 | 1011.0 |
| 20260506193414 | 30 | 144 | 4.8 | 16.1 | 0.00 | 0.00 | 0.00 | 69 | 1011.0 |
| 20260506193327 | 30 | 141 | 4.8 | 16.1 | 0.00 | 0.00 | 0.00 | 70 | 1011.0 |
| 20260506193224 | 30 | 145 | 4.8 | 9.7 | 0.00 | 0.00 | 0.00 | 70 | 1011.0 |
| 20260506193141 | 30 | 138 | 4.8 | 9.7 | 0.00 | 0.00 | 0.00 | 70 | 1011.1 |
| 20260506193015 | 30 | 169 | 4.8 | 9.7 | 0.00 | 0.00 | 0.00 | 70 | 1011.1 |
| 20260506192921 | 30 | 153 | 4.8 | 9.7 | 0.00 | 0.00 | 0.00 | 70 | 1011.1 |
| 20260506192834 | 30 | 167 | 4.8 | 11.3 | 0.00 | 0.00 | 0.00 | 70 | 1011.1 |
| 20260506192740 | 30 | 156 | 3.2 | 11.3 | 0.00 | 0.00 | 0.00 | 70 | 1011.2 |
| 20260506192642 | 30 | 160 | 3.2 | 11.3 | 0.00 | 0.00 | 0.00 | 70 | 1011.2 |
| 20260506192522 | 30 | 103 | 3.2 | 12.9 | 0.00 | 0.00 | 0.00 | 70 | 1011.3 |
| 20260506192429 | 30 | 109 | 3.2 | 12.9 | 0.00 | 0.00 | 0.00 | 70 | 1011.4 |
| 20260506192317 | 30 | 163 | 3.2 | 12.9 | 0.00 | 0.00 | 0.00 | 69 | 1011.4 |
| 20260506192213 | 30 | 179 | 3.2 | 12.9 | 0.00 | 0.00 | 0.00 | 69 | 1011.4 |
| 20260506192126 | 30 | 141 | 1.6 | 12.9 | 0.00 | 0.00 | 0.00 | 69 | 1011.4 |
| 20260506192024 | 30 | 134 | 3.2 | 12.9 | 0.00 | 0.00 | 0.00 | 69 | 1011.4 |
| 20260506191937 | 30 | 134 | 3.2 | 12.9 | 0.00 | 0.00 | 0.00 | 69 | 1011.4 |
| 20260506191823 | 30 | 140 | 4.8 | 12.9 | 0.00 | 0.00 | 0.00 | 70 | 1011.4 |
| 20260506191719 | 30 | 139 | 4.8 | 12.9 | 0.00 | 0.00 | 0.00 | 70 | 1011.4 |
| 20260506191651 | 30 | 136 | 4.8 | 12.9 | 0.00 | 0.00 | 0.00 | 70 | 1011.4 |
| 20260506191546 | 30 | 127 | 4.8 | 11.3 | 0.00 | 0.00 | 0.00 | 70 | 1011.4 |
| 20260506191416 | 30 | 136 | 3.2 | 11.3 | 0.00 | 0.00 | 0.00 | 71 | 1011.5 |
| 20260506191329 | 30 | 194 | 3.2 | 11.3 | 0.00 | 0.00 | 0.00 | 71 | 1011.4 |
| 20260506191217 | 30 | 173 | 4.8 | 11.3 | 0.00 | 0.00 | 0.00 | 71 | 1011.5 |
| 20260506191131 | 30 | 153 | 3.2 | 11.3 | 0.00 | 0.00 | 0.00 | 71 | 1011.6 |
| 20260506191033 | 30 | 138 | 3.2 | 11.3 | 0.00 | 0.00 | 0.00 | 70 | 1011.6 |
| 20260506190925 | 29 | 139 | 3.2 | 11.3 | 0.00 | 0.00 | 0.00 | 71 | 1011.7 |
| 20260506190853 | 29 | 136 | 3.2 | 11.3 | 0.00 | 0.00 | 0.00 | 71 | 1011.7 |
| 20260506190719 | 29 | 161 | 4.8 | 11.3 | 0.00 | 0.00 | 0.00 | 71 | 1011.7 |
| 20260506190642 | 29 | 138 | 3.2 | 11.3 | 0.00 | 0.00 | 0.00 | 71 | 1011.7 |
| 20260506190535 | 29 | 123 | 1.6 | 8.0 | 0.00 | 0.00 | 0.00 | 71 | 1011.6 |
| 20260506190448 | 29 | 150 | 1.6 | 8.0 | 0.00 | 0.00 | 0.00 | 71 | 1011.6 |
| 20260506190315 | 30 | 150 | 1.6 | 8.0 | 0.00 | 0.00 | 0.00 | 70 | 1011.7 |
| 20260506190215 | 30 | 149 | 3.2 | 8.0 | 0.00 | 0.00 | 0.00 | 70 | 1011.6 |
| 20260506190128 | 30 | 148 | 3.2 | 8.0 | 0.00 | 0.00 | 0.00 | 70 | 1011.6 |
| 20260506190022 | 30 | 182 | 1.6 | 6.4 | 0.00 | 0.00 | 0.00 | 71 | 1011.7 |
| 20260506185935 | 30 | 137 | 1.6 | 6.4 | 0.00 | 0.00 | 0.00 | 70 | 1011.7 |
| 20260506185822 | 30 | 137 | 1.6 | 11.3 | 0.00 | 0.00 | 0.00 | 71 | 1011.7 |
| 20260506185712 | 30 | 151 | 1.6 | 14.5 | 0.00 | 0.00 | 0.00 | 71 | 1011.8 |
| 20260506185657 | 29 | 151 | 1.6 | 14.5 | 0.00 | 0.00 | 0.00 | 71 | 1011.8 |
| 20260506185532 | 29 | 147 | 3.2 | 14.5 | 0.00 | 0.00 | 0.00 | 71 | 1011.7 |
| 20260506185418 | 29 | 148 | 1.6 | 14.5 | 0.00 | 0.00 | 0.00 | 71 | 1011.8 |
| 20260506185351 | 29 | 163 | 1.6 | 14.5 | 0.00 | 0.00 | 0.00 | 71 | 1011.8 |
| 20260506185217 | 29 | 161 | 3.2 | 14.5 | 0.00 | 0.00 | 0.00 | 71 | 1011.8 |
| 20260506185200 | 29 | 159 | 3.2 | 14.5 | 0.00 | 0.00 | 0.00 | 71 | 1011.8 |
| 20260506185019 | 29 | 138 | 4.8 | 14.5 | 0.00 | 0.00 | 0.00 | 71 | 1011.9 |
| 20260506184926 | 29 | 126 | 3.2 | 14.5 | 0.00 | 0.00 | 0.00 | 71 | 1011.9 |
| 20260506184833 | 29 | 205 | 4.8 | 14.5 | 0.00 | 0.00 | 0.00 | 71 | 1011.9 |
| 20260506184719 | 29 | 159 | 4.8 | 14.5 | 0.00 | 0.00 | 0.00 | 70 | 1011.9 |
| 20260506184642 | 29 | 160 | 4.8 | 14.5 | 0.00 | 0.00 | 0.00 | 70 | 1012.0 |
| 20260506184541 | 29 | 160 | 4.8 | 14.5 | 0.00 | 0.00 | 0.00 | 70 | 1011.9 |
| 20260506184433 | 30 | 132 | 3.2 | 11.3 | 0.00 | 0.00 | 0.00 | 70 | 1011.9 |
| 20260506184320 | 30 | 142 | 3.2 | 11.3 | 0.00 | 0.00 | 0.00 | 70 | 1011.9 |
| 20260506184218 | 30 | 143 | 1.6 | 11.3 | 0.00 | 0.00 | 0.00 | 70 | 1011.9 |
| 20260506184128 | 30 | 191 | 1.6 | 11.3 | 0.00 | 0.00 | 0.00 | 70 | 1012.0 |
| 20260506184024 | 30 | 146 | 3.2 | 11.3 | 0.00 | 0.00 | 0.00 | 70 | 1012.0 |
| 20260506183914 | 30 | 142 | 4.8 | 11.3 | 0.00 | 0.00 | 0.00 | 70 | 1012.0 |
| 20260506183819 | 30 | 118 | 4.8 | 11.3 | 0.00 | 0.00 | 0.00 | 71 | 1012.0 |
| 20260506183722 | 29 | 140 | 3.2 | 11.3 | 0.00 | 0.00 | 0.00 | 72 | 1012.0 |
| 20260506183657 | 29 | 146 | 3.2 | 8.0 | 0.00 | 0.00 | 0.00 | 72 | 1012.0 |
| 20260506183530 | 29 | 152 | 3.2 | 12.9 | 0.00 | 0.00 | 0.00 | 72 | 1012.0 |
| 20260506183420 | 29 | 139 | 3.2 | 12.9 | 0.00 | 0.00 | 0.00 | 72 | 1012.0 |
| 20260506183326 | 29 | 171 | 3.2 | 12.9 | 0.00 | 0.00 | 0.00 | 72 | 1012.0 |
| 20260506183223 | 29 | 138 | 3.2 | 12.9 | 0.00 | 0.00 | 0.00 | 71 | 1012.1 |
| 20260506183134 | 29 | 128 | 3.2 | 12.9 | 0.00 | 0.00 | 0.00 | 71 | 1012.1 |
| 20260506183029 | 29 | 131 | 3.2 | 12.9 | 0.00 | 0.00 | 0.00 | 72 | 1012.1 |
| 20260506182916 | 28 | 123 | 3.2 | 12.9 | 0.00 | 0.00 | 0.00 | 72 | 1012.1 |
| 20260506182813 | 28 | 133 | 4.8 | 12.9 | 0.00 | 0.00 | 0.00 | 71 | 1012.1 |
| 20260506182719 | 28 | 118 | 3.2 | 12.9 | 0.00 | 0.00 | 0.00 | 72 | 1012.1 |
| 20260506182641 | 28 | 132 | 3.2 | 11.3 | 0.00 | 0.00 | 0.00 | 72 | 1012.2 |
| 20260506182538 | 28 | 165 | 3.2 | 9.7 | 0.00 | 0.00 | 0.00 | 72 | 1012.2 |
| 20260506182450 | 28 | 163 | 4.8 | 9.7 | 0.00 | 0.00 | 0.00 | 72 | 1012.1 |
| 20260506182314 | 28 | 115 | 3.2 | 9.7 | 0.00 | 0.00 | 0.00 | 72 | 1012.2 |
| 20260506182216 | 28 | 124 | 1.6 | 9.7 | 0.00 | 0.00 | 0.00 | 73 | 1012.2 |
| 20260506182127 | 28 | 180 | 3.2 | 9.7 | 0.00 | 0.00 | 0.00 | 72 | 1012.2 |
| 20260506182023 | 28 | 126 | 1.6 | 11.3 | 0.00 | 0.00 | 0.00 | 72 | 1012.2 |
| 20260506181956 | 28 | 117 | 3.2 | 11.3 | 0.00 | 0.00 | 0.00 | 72 | 1012.2 |
| 20260506181820 | 28 | 174 | 4.8 | 11.3 | 0.00 | 0.00 | 0.00 | 72 | 1012.2 |
| 20260506181717 | 28 | 124 | 4.8 | 11.3 | 0.00 | 0.00 | 0.00 | 72 | 1012.2 |
| 20260506181633 | 28 | 79 | 3.2 | 11.3 | 0.00 | 0.00 | 0.00 | 73 | 1012.3 |
| 20260506181528 | 28 | 117 | 3.2 | 8.0 | 0.00 | 0.00 | 0.00 | 73 | 1012.2 |
| 20260506181413 | 28 | 116 | 3.2 | 8.0 | 0.00 | 0.00 | 0.00 | 73 | 1012.3 |
| 20260506181327 | 28 | 140 | 3.2 | 8.0 | 0.00 | 0.00 | 0.00 | 73 | 1012.3 |
| 20260506181233 | 28 | 174 | 3.2 | 8.0 | 0.00 | 0.00 | 0.00 | 73 | 1012.3 |
| 20260506181135 | 28 | 182 | 3.2 | 8.0 | 0.00 | 0.00 | 0.00 | 73 | 1012.3 |
| 20260506181016 | 28 | 119 | 1.6 | 8.0 | 0.00 | 0.00 | 0.00 | 73 | 1012.3 |
| 20260506180921 | 28 | 119 | 1.6 | 11.3 | 0.00 | 0.00 | 0.00 | 73 | 1012.3 |
| 20260506180834 | 28 | 119 | 1.6 | 11.3 | 0.00 | 0.00 | 0.00 | 72 | 1012.3 |
| 20260506180740 | 28 | 117 | 1.6 | 11.3 | 0.00 | 0.00 | 0.00 | 72 | 1012.3 |
| 20260506180641 | 28 | 117 | 1.6 | 11.3 | 0.00 | 0.00 | 0.00 | 72 | 1012.4 |
| 20260506180537 | 28 | 117 | 3.2 | 11.3 | 0.00 | 0.00 | 0.00 | 72 | 1012.4 |
| 20260506180421 | 28 | 114 | 1.6 | 11.3 | 0.00 | 0.00 | 0.00 | 72 | 1012.4 |
| 20260506180319 | 28 | 113 | 1.6 | 11.3 | 0.00 | 0.00 | 0.00 | 72 | 1012.4 |
| 20260506180214 | 28 | 111 | 3.2 | 11.3 | 0.00 | 0.00 | 0.00 | 72 | 1012.4 |
| 20260506180146 | 28 | 109 | 3.2 | 11.3 | 0.00 | 0.00 | 0.00 | 72 | 1012.4 |
| 20260506180022 | 28 | 121 | 4.8 | 11.3 | 0.00 | 0.00 | 0.00 | 72 | 1012.5 |
| 20260506175930 | 28 | 136 | 3.2 | 11.3 | 0.00 | 0.00 | 0.00 | 72 | 1012.5 |
| 20260506175841 | 28 | 180 | 3.2 | 11.3 | 0.00 | 0.00 | 0.00 | 72 | 1012.5 |
| 20260506175723 | 28 | 196 | 3.2 | 11.3 | 0.00 | 0.00 | 0.00 | 72 | 1012.5 |
| 20260506175648 | 28 | 119 | 1.6 | 11.3 | 0.00 | 0.00 | 0.00 | 73 | 1012.5 |
| 20260506175549 | 28 | 155 | 0.0 | 8.0 | 0.00 | 0.00 | 0.00 | 73 | 1012.6 |
| 20260506175414 | 28 | 155 | 1.6 | 8.0 | 0.00 | 0.00 | 0.00 | 73 | 1012.6 |
| 20260506175321 | 28 | 155 | 1.6 | 8.0 | 0.00 | 0.00 | 0.00 | 73 | 1012.6 |
| 20260506175234 | 28 | 160 | 1.6 | 8.0 | 0.00 | 0.00 | 0.00 | 73 | 1012.6 |
| 20260506175140 | 28 | 161 | 1.6 | 8.0 | 0.00 | 0.00 | 0.00 | 73 | 1012.6 |
| 20260506175016 | 28 | 161 | 1.6 | 8.0 | 0.00 | 0.00 | 0.00 | 72 | 1012.6 |
| 20260506174921 | 28 | 159 | 1.6 | 8.0 | 0.00 | 0.00 | 0.00 | 72 | 1012.6 |
| 20260506174854 | 28 | 160 | 3.2 | 8.0 | 0.00 | 0.00 | 0.00 | 72 | 1012.7 |
| 20260506174720 | 28 | 150 | 3.2 | 8.0 | 0.00 | 0.00 | 0.00 | 72 | 1012.7 |
| 20260506174637 | 28 | 135 | 3.2 | 8.0 | 0.00 | 0.00 | 0.00 | 72 | 1012.7 |
| 20260506174516 | 28 | 140 | 3.2 | 8.0 | 0.00 | 0.00 | 0.00 | 73 | 1012.7 |
| 20260506174429 | 28 | 136 | 3.2 | 8.0 | 0.00 | 0.00 | 0.00 | 73 | 1012.6 |
| 20260506174314 | 28 | 160 | 3.2 | 8.0 | 0.00 | 0.00 | 0.00 | 73 | 1012.7 |
| 20260506174219 | 28 | 161 | 3.2 | 8.0 | 0.00 | 0.00 | 0.00 | 73 | 1012.7 |
| 20260506174143 | 28 | 142 | 3.2 | 8.0 | 0.00 | 0.00 | 0.00 | 73 | 1012.7 |
| 20260506174022 | 28 | 173 | 1.6 | 9.7 | 0.00 | 0.00 | 0.00 | 73 | 1012.7 |
| 20260506173929 | 28 | 173 | 1.6 | 9.7 | 0.00 | 0.00 | 0.00 | 73 | 1012.7 |
| 20260506173816 | 28 | 129 | 3.2 | 9.7 | 0.00 | 0.00 | 0.00 | 73 | 1012.7 |
| 20260506173740 | 28 | 126 | 4.8 | 12.9 | 0.00 | 0.00 | 0.00 | 73 | 1012.7 |
| 20260506173643 | 28 | 126 | 4.8 | 12.9 | 0.00 | 0.00 | 0.00 | 73 | 1012.7 |
| 20260506173518 | 28 | 115 | 1.6 | 12.9 | 0.00 | 0.00 | 0.00 | 74 | 1012.6 |
| 20260506173417 | 28 | 109 | 0.0 | 12.9 | 0.00 | 0.00 | 0.00 | 74 | 1012.7 |
| 20260506173323 | 28 | 107 | 0.0 | 12.9 | 0.00 | 0.00 | 0.00 | 74 | 1012.7 |
| 20260506173219 | 28 | 106 | 0.0 | 12.9 | 0.00 | 0.00 | 0.00 | 73 | 1012.7 |
| 20260506173130 | 28 | 106 | 1.6 | 12.9 | 0.00 | 0.00 | 0.00 | 74 | 1012.6 |
| 20260506173026 | 28 | 128 | 4.8 | 12.9 | 0.00 | 0.00 | 0.00 | 74 | 1012.6 |
| 20260506172914 | 28 | 147 | 4.8 | 12.9 | 0.00 | 0.00 | 0.00 | 74 | 1012.7 |
| 20260506172829 | 28 | 124 | 3.2 | 9.7 | 0.00 | 0.00 | 0.00 | 74 | 1012.7 |
| 20260506172716 | 28 | 140 | 1.6 | 9.7 | 0.00 | 0.00 | 0.00 | 75 | 1012.7 |
| 20260506172631 | 28 | 157 | 1.6 | 6.4 | 0.00 | 0.00 | 0.00 | 75 | 1012.7 |
| 20260506172533 | 28 | 121 | 1.6 | 6.4 | 0.00 | 0.00 | 0.00 | 75 | 1012.7 |
| 20260506172440 | 28 | 120 | 1.6 | 6.4 | 0.00 | 0.00 | 0.00 | 75 | 1012.7 |
| 20260506172329 | 28 | 119 | 1.6 | 6.4 | 0.00 | 0.00 | 0.00 | 75 | 1012.8 |
| 20260506172216 | 28 | 116 | 0.0 | 6.4 | 0.00 | 0.00 | 0.00 | 76 | 1012.8 |
| 20260506172139 | 28 | 116 | 1.6 | 6.4 | 0.00 | 0.00 | 0.00 | 76 | 1012.8 |
| 20260506172013 | 28 | 130 | 1.6 | 6.4 | 0.00 | 0.00 | 0.00 | 76 | 1012.8 |
| 20260506171924 | 28 | 144 | 1.6 | 6.4 | 0.00 | 0.00 | 0.00 | 76 | 1012.8 |
| 20260506171816 | 28 | 143 | 1.6 | 8.0 | 0.00 | 0.00 | 0.00 | 76 | 1012.8 |
| 20260506171721 | 28 | 143 | 3.2 | 8.0 | 0.00 | 0.00 | 0.00 | 76 | 1012.8 |
| 20260506171624 | 28 | 143 | 3.2 | 8.0 | 0.00 | 0.00 | 0.00 | 76 | 1012.8 |
| 20260506171519 | 28 | 126 | 3.2 | 8.0 | 0.00 | 0.00 | 0.00 | 76 | 1012.9 |
| 20260506171424 | 28 | 169 | 3.2 | 8.0 | 0.00 | 0.00 | 0.00 | 76 | 1012.8 |
| 20260506171337 | 28 | 142 | 3.2 | 8.0 | 0.00 | 0.00 | 0.00 | 76 | 1012.9 |
| 20260506171237 | 28 | 130 | 3.2 | 8.0 | 0.00 | 0.00 | 0.00 | 76 | 1012.9 |
| 20260506171148 | 28 | 129 | 3.2 | 8.0 | 0.00 | 0.00 | 0.00 | 76 | 1012.9 |
| 20260506171043 | 27 | 142 | 3.2 | 8.0 | 0.00 | 0.00 | 0.00 | 76 | 1012.9 |
| 20260506170927 | 27 | 124 | 3.2 | 8.0 | 0.00 | 0.00 | 0.00 | 76 | 1012.9 |
| 20260506170822 | 27 | 151 | 1.6 | 6.4 | 0.00 | 0.00 | 0.00 | 77 | 1012.9 |
| 20260506170718 | 27 | 175 | 1.6 | 6.4 | 0.00 | 0.00 | 0.00 | 77 | 1013.0 |
| 20260506170635 | 27 | 184 | 1.6 | 6.4 | 0.00 | 0.00 | 0.00 | 77 | 1013.0 |
| 20260506170529 | 27 | 141 | 0.0 | 6.4 | 0.00 | 0.00 | 0.00 | 77 | 1013.0 |
| 20260506170416 | 27 | 140 | 1.6 | 6.4 | 0.00 | 0.00 | 0.00 | 76 | 1012.9 |
| 20260506170324 | 27 | 140 | 1.6 | 6.4 | 0.00 | 0.00 | 0.00 | 77 | 1013.0 |
| 20260506170219 | 27 | 144 | 0.0 | 6.4 | 0.00 | 0.00 | 0.00 | 77 | 1013.0 |
| 20260506170136 | 27 | 144 | 0.0 | 6.4 | 0.00 | 0.00 | 0.00 | 77 | 1013.0 |
| 20260506170038 | 27 | 144 | 0.0 | 6.4 | 0.00 | 0.00 | 0.00 | 77 | 1013.0 |
| 20260506165943 | 27 | 144 | 1.6 | 6.4 | 0.00 | 0.00 | 0.00 | 77 | 1013.0 |
| 20260506165855 | 27 | 144 | 1.6 | 8.0 | 0.00 | 0.00 | 0.00 | 77 | 1012.9 |
| 20260506165741 | 27 | 150 | 3.2 | 8.0 | 0.00 | 0.00 | 0.00 | 77 | 1012.9 |
| 20260506165642 | 27 | 150 | 1.6 | 8.0 | 0.00 | 0.00 | 0.00 | 77 | 1013.0 |
| 20260506165538 | 27 | 167 | 0.0 | 8.0 | 0.00 | 0.00 | 0.00 | 77 | 1013.0 |
| 20260506165428 | 27 | 167 | 1.6 | 8.0 | 0.00 | 0.00 | 0.00 | 77 | 1012.9 |
| 20260506165313 | 27 | 167 | 1.6 | 11.3 | 0.00 | 0.00 | 0.00 | 77 | 1013.0 |
| 20260506165218 | 27 | 165 | 1.6 | 11.3 | 0.00 | 0.00 | 0.00 | 77 | 1013.0 |
| 20260506165143 | 27 | 163 | 1.6 | 11.3 | 0.00 | 0.00 | 0.00 | 77 | 1013.0 |
| 20260506165018 | 27 | 149 | 1.6 | 11.3 | 0.00 | 0.00 | 0.00 | 77 | 1013.0 |
| 20260506164931 | 27 | 130 | 1.6 | 11.3 | 0.00 | 0.00 | 0.00 | 77 | 1013.0 |
| 20260506164823 | 27 | 135 | 3.2 | 11.3 | 0.00 | 0.00 | 0.00 | 77 | 1013.0 |
| 20260506164719 | 27 | 135 | 4.8 | 11.3 | 0.00 | 0.00 | 0.00 | 77 | 1013.0 |
| 20260506164631 | 27 | 119 | 4.8 | 11.3 | 0.00 | 0.00 | 0.00 | 77 | 1013.0 |
| 20260506164526 | 27 | 134 | 3.2 | 11.3 | 0.00 | 0.00 | 0.00 | 77 | 1013.0 |
| 20260506164439 | 27 | 225 | 0.0 | 8.0 | 0.00 | 0.00 | 0.00 | 77 | 1013.1 |
| 20260506164328 | 27 | 147 | 0.0 | 4.8 | 0.00 | 0.00 | 0.00 | 77 | 1013.0 |
| 20260506164244 | 27 | 147 | 0.0 | 4.8 | 0.00 | 0.00 | 0.00 | 77 | 1013.1 |
| 20260506164134 | 27 | 147 | 1.6 | 4.8 | 0.00 | 0.00 | 0.00 | 77 | 1013.0 |
| 20260506164029 | 27 | 147 | 1.6 | 4.8 | 0.00 | 0.00 | 0.00 | 77 | 1013.0 |
| 20260506163914 | 27 | 146 | 0.0 | 4.8 | 0.00 | 0.00 | 0.00 | 77 | 1013.0 |
| 20260506163828 | 27 | 145 | 0.0 | 4.8 | 0.00 | 0.00 | 0.00 | 77 | 1013.0 |
| 20260506163719 | 27 | 144 | 0.0 | 4.8 | 0.00 | 0.00 | 0.00 | 77 | 1013.0 |
| 20260506163635 | 27 | 144 | 0.0 | 4.8 | 0.00 | 0.00 | 0.00 | 77 | 1013.0 |
| 20260506163537 | 27 | 144 | 0.0 | 4.8 | 0.00 | 0.00 | 0.00 | 77 | 1013.0 |
| 20260506163423 | 27 | 144 | 0.0 | 4.8 | 0.00 | 0.00 | 0.00 | 77 | 1013.0 |
| 20260506163329 | 27 | 144 | 0.0 | 4.8 | 0.00 | 0.00 | 0.00 | 77 | 1013.0 |
| 20260506163221 | 27 | 143 | 1.6 | 4.8 | 0.00 | 0.00 | 0.00 | 77 | 1013.0 |
| 20260506163143 | 27 | 143 | 3.2 | 4.8 | 0.00 | 0.00 | 0.00 | 77 | 1013.1 |
| 20260506163018 | 27 | 167 | 1.6 | 6.4 | 0.00 | 0.00 | 0.00 | 77 | 1013.1 |
| 20260506162923 | 27 | 153 | 0.0 | 3.2 | 0.00 | 0.00 | 0.00 | 77 | 1013.0 |
| 20260506162836 | 27 | 153 | 0.0 | 3.2 | 0.00 | 0.00 | 0.00 | 77 | 1013.0 |
| 20260506162741 | 27 | 153 | 0.0 | 3.2 | 0.00 | 0.00 | 0.00 | 77 | 1013.0 |
| 20260506162628 | 27 | 153 | 0.0 | 3.2 | 0.00 | 0.00 | 0.00 | 77 | 1013.0 |
| 20260506162542 | 27 | 153 | 0.0 | 3.2 | 0.00 | 0.00 | 0.00 | 77 | 1013.0 |
| 20260506162515 | 27 | 153 | 0.0 | 4.8 | 0.00 | 0.00 | 0.00 | 77 | 1013.0 |
| 20260506161738 | 27 | 155 | 1.6 | 6.4 | 0.00 | 0.00 | 0.00 | 77 | 1012.9 |
| 20260506161649 | 27 | 155 | 1.6 | 6.4 | 0.00 | 0.00 | 0.00 | 77 | 1012.9 |
| 20260506161523 | 27 | 161 | 1.6 | 6.4 | 0.00 | 0.00 | 0.00 | 77 | 1012.9 |
| 20260506161436 | 27 | 130 | 1.6 | 6.4 | 0.00 | 0.00 | 0.00 | 77 | 1012.8 |
| 20260506161325 | 27 | 122 | 0.0 | 4.8 | 0.00 | 0.00 | 0.00 | 78 | 1012.8 |
| 20260506161223 | 27 | 122 | 0.0 | 6.4 | 0.00 | 0.00 | 0.00 | 78 | 1012.8 |
| 20260506161136 | 27 | 122 | 0.0 | 6.4 | 0.00 | 0.00 | 0.00 | 78 | 1012.8 |
| 20260506161028 | 27 | 122 | 1.6 | 6.4 | 0.00 | 0.00 | 0.00 | 77 | 1012.8 |
| 20260506160912 | 27 | 158 | 0.0 | 6.4 | 0.00 | 0.00 | 0.00 | 78 | 1012.8 |
| 20260506160831 | 27 | 158 | 0.0 | 6.4 | 0.00 | 0.00 | 0.00 | 78 | 1012.8 |
| 20260506160718 | 27 | 158 | 1.6 | 8.0 | 0.00 | 0.00 | 0.00 | 77 | 1012.8 |
| 20260506160704 | 27 | 156 | 1.6 | 8.0 | 0.00 | 0.00 | 0.00 | 78 | 1012.7 |
| 20260506160537 | 27 | 156 | 1.6 | 8.0 | 0.00 | 0.00 | 0.00 | 77 | 1012.7 |
| 20260506160423 | 27 | 156 | 1.6 | 8.0 | 0.00 | 0.00 | 0.00 | 78 | 1012.7 |
| 20260506160330 | 27 | 146 | 1.6 | 8.0 | 0.00 | 0.00 | 0.00 | 78 | 1012.7 |
| 20260506160220 | 27 | 151 | 1.6 | 8.0 | 0.00 | 0.00 | 0.00 | 78 | 1012.7 |
| 20260506160143 | 27 | 151 | 1.6 | 8.0 | 0.00 | 0.00 | 0.00 | 78 | 1012.7 |
| 20260506160019 | 27 | 151 | 3.2 | 12.9 | 0.00 | 0.00 | 0.00 | 78 | 1012.7 |
| 20260506155925 | 27 | 133 | 1.6 | 12.9 | 0.00 | 0.00 | 0.00 | 78 | 1012.6 |
| 20260506155839 | 27 | 134 | 1.6 | 12.9 | 0.00 | 0.00 | 0.00 | 78 | 1012.7 |
| 20260506155718 | 27 | 138 | 0.0 | 12.9 | 0.00 | 0.00 | 0.00 | 78 | 1012.6 |
| 20260506155630 | 27 | 137 | 0.0 | 12.9 | 0.00 | 0.00 | 0.00 | 78 | 1012.6 |
| 20260506155545 | 27 | 133 | 0.0 | 12.9 | 0.00 | 0.00 | 0.00 | 78 | 1012.6 |
| 20260506155437 | 27 | 133 | 1.6 | 12.9 | 0.00 | 0.00 | 0.00 | 78 | 1012.6 |
| 20260506155322 | 27 | 133 | 3.2 | 12.9 | 0.00 | 0.00 | 0.00 | 78 | 1012.6 |
| 20260506155220 | 27 | 151 | 3.2 | 12.9 | 0.00 | 0.00 | 0.00 | 78 | 1012.6 |
| 20260506155135 | 27 | 150 | 3.2 | 12.9 | 0.00 | 0.00 | 0.00 | 78 | 1012.6 |
| 20260506155030 | 27 | 187 | 0.0 | 6.4 | 0.00 | 0.00 | 0.00 | 78 | 1012.6 |
| 20260506154916 | 27 | 141 | 0.0 | 6.4 | 0.00 | 0.00 | 0.00 | 78 | 1012.6 |
| 20260506154848 | 27 | 141 | 1.6 | 6.4 | 0.00 | 0.00 | 0.00 | 78 | 1012.6 |
| 20260506154713 | 27 | 141 | 3.2 | 6.4 | 0.00 | 0.00 | 0.00 | 78 | 1012.6 |
| 20260506154630 | 27 | 140 | 3.2 | 8.0 | 0.00 | 0.00 | 0.00 | 78 | 1012.6 |
| 20260506154518 | 27 | 207 | 3.2 | 8.0 | 0.00 | 0.00 | 0.00 | 79 | 1012.5 |
| 20260506154422 | 27 | 138 | 1.6 | 8.0 | 0.00 | 0.00 | 0.00 | 79 | 1012.6 |
| 20260506154327 | 27 | 136 | 0.0 | 8.0 | 0.00 | 0.00 | 0.00 | 79 | 1012.5 |
| 20260506154240 | 27 | 134 | 1.6 | 12.9 | 0.00 | 0.00 | 0.00 | 79 | 1012.5 |
| 20260506154133 | 27 | 135 | 1.6 | 12.9 | 0.00 | 0.00 | 0.00 | 79 | 1012.5 |
| 20260506154036 | 27 | 162 | 1.6 | 12.9 | 0.00 | 0.00 | 0.00 | 79 | 1012.5 |
| 20260506153946 | 27 | 156 | 1.6 | 12.9 | 0.00 | 0.00 | 0.00 | 79 | 1012.5 |
| 20260506153831 | 27 | 157 | 3.2 | 12.9 | 0.00 | 0.00 | 0.00 | 79 | 1012.5 |
| 20260506153718 | 27 | 150 | 3.2 | 12.9 | 0.00 | 0.00 | 0.00 | 79 | 1012.4 |
| 20260506153640 | 27 | 136 | 3.2 | 12.9 | 0.00 | 0.00 | 0.00 | 79 | 1012.4 |
| 20260506153516 | 27 | 113 | 3.2 | 12.9 | 0.00 | 0.00 | 0.00 | 80 | 1012.5 |
| 20260506153423 | 26 | 111 | 3.2 | 12.9 | 0.00 | 0.00 | 0.00 | 80 | 1012.4 |
| 20260506153312 | 26 | 143 | 4.8 | 12.9 | 0.00 | 0.00 | 0.00 | 80 | 1012.4 |
| 20260506153217 | 26 | 132 | 3.2 | 12.9 | 0.00 | 0.00 | 0.00 | 80 | 1012.4 |
| 20260506153150 | 26 | 145 | 4.8 | 12.9 | 0.00 | 0.00 | 0.00 | 80 | 1012.4 |
| 20260506153044 | 26 | 128 | 6.4 | 12.9 | 0.00 | 0.00 | 0.00 | 80 | 1012.4 |
| 20260506152929 | 26 | 169 | 4.8 | 9.7 | 0.00 | 0.00 | 0.00 | 80 | 1012.4 |
| 20260506152819 | 26 | 125 | 4.8 | 9.7 | 0.00 | 0.00 | 0.00 | 81 | 1012.3 |
| 20260506152716 | 26 | 165 | 3.2 | 9.7 | 0.00 | 0.00 | 0.00 | 81 | 1012.4 |
| 20260506152627 | 26 | 186 | 1.6 | 9.7 | 0.00 | 0.00 | 0.00 | 81 | 1012.4 |
| 20260506152529 | 26 | 173 | 0.0 | 9.7 | 0.00 | 0.00 | 0.00 | 81 | 1012.4 |
| 20260506152434 | 26 | 173 | 4.8 | 9.7 | 0.00 | 0.00 | 0.00 | 81 | 1012.3 |
| 20260506152327 | 26 | 173 | 4.8 | 11.3 | 0.00 | 0.00 | 0.00 | 81 | 1012.3 |
| 20260506152234 | 26 | 144 | 3.2 | 11.3 | 0.00 | 0.00 | 0.00 | 81 | 1012.3 |
| 20260506152139 | 26 | 163 | 3.2 | 11.3 | 0.00 | 0.00 | 0.00 | 81 | 1012.3 |
| 20260506152037 | 26 | 138 | 4.8 | 11.3 | 0.00 | 0.00 | 0.00 | 81 | 1012.3 |
| 20260506151923 | 26 | 145 | 3.2 | 11.3 | 0.00 | 0.00 | 0.00 | 81 | 1012.3 |
| 20260506151835 | 26 | 143 | 3.2 | 11.3 | 0.00 | 0.00 | 0.00 | 82 | 1012.2 |
| 20260506151721 | 26 | 142 | 1.6 | 8.0 | 0.00 | 0.00 | 0.00 | 82 | 1012.3 |
| 20260506151646 | 26 | 140 | 3.2 | 8.0 | 0.00 | 0.00 | 0.00 | 82 | 1012.3 |
| 20260506151545 | 26 | 163 | 1.6 | 8.0 | 0.00 | 0.00 | 0.00 | 82 | 1012.3 |
| 20260506151436 | 26 | 180 | 1.6 | 8.0 | 0.00 | 0.00 | 0.00 | 82 | 1012.3 |
| 20260506151322 | 26 | 177 | 1.6 | 8.0 | 0.00 | 0.00 | 0.00 | 82 | 1012.3 |
| 20260506151240 | 26 | 177 | 1.6 | 8.0 | 0.00 | 0.00 | 0.00 | 82 | 1012.4 |
| 20260506151128 | 26 | 177 | 1.6 | 8.0 | 0.00 | 0.00 | 0.00 | 82 | 1012.4 |
| 20260506151030 | 26 | 177 | 1.6 | 9.7 | 0.00 | 0.00 | 0.00 | 82 | 1012.4 |
| 20260506150917 | 26 | 130 | 0.0 | 8.0 | 0.00 | 0.00 | 0.00 | 83 | 1012.4 |
| 20260506150826 | 26 | 130 | 1.6 | 8.0 | 0.00 | 0.00 | 0.00 | 83 | 1012.5 |
| 20260506150739 | 26 | 130 | 1.6 | 9.7 | 0.00 | 0.00 | 0.00 | 83 | 1012.5 |
| 20260506150633 | 26 | 130 | 1.6 | 9.7 | 0.00 | 0.00 | 0.00 | 83 | 1012.5 |
| 20260506150535 | 26 | 149 | 1.6 | 11.3 | 0.00 | 0.00 | 0.00 | 83 | 1012.5 |
| 20260506150421 | 26 | 149 | 1.6 | 11.3 | 0.00 | 0.00 | 0.00 | 83 | 1012.5 |
| 20260506150326 | 26 | 122 | 1.6 | 11.3 | 0.00 | 0.00 | 0.00 | 83 | 1012.5 |
| 20260506150216 | 26 | 115 | 1.6 | 11.3 | 0.00 | 0.00 | 0.00 | 83 | 1012.5 |
| 20260506150139 | 26 | 115 | 1.6 | 11.3 | 0.00 | 0.00 | 0.00 | 83 | 1012.5 |
| 20260506150013 | 26 | 113 | 3.2 | 11.3 | 0.00 | 0.00 | 0.00 | 83 | 1012.5 |
| 20260506145919 | 26 | 177 | 3.2 | 11.3 | 0.00 | 0.00 | 0.00 | 83 | 1012.5 |
| 20260506145832 | 26 | 175 | 3.2 | 11.3 | 0.00 | 0.00 | 0.00 | 83 | 1012.5 |
| 20260506145712 | 26 | 160 | 4.8 | 11.3 | 0.00 | 0.00 | 0.00 | 83 | 1012.5 |
| 20260506145646 | 26 | 184 | 3.2 | 11.3 | 0.00 | 0.00 | 0.00 | 83 | 1012.5 |
| 20260506145522 | 26 | 124 | 0.0 | 8.0 | 0.00 | 0.00 | 0.00 | 83 | 1012.5 |
| 20260506145446 | 26 | 124 | 1.6 | 8.0 | 0.00 | 0.00 | 0.00 | 83 | 1012.5 |
| 20260506145338 | 26 | 124 | 1.6 | 8.0 | 0.00 | 0.00 | 0.00 | 83 | 1012.4 |
| 20260506145233 | 26 | 155 | 1.6 | 8.0 | 0.00 | 0.00 | 0.00 | 84 | 1012.5 |
| 20260506145145 | 26 | 155 | 1.6 | 8.0 | 0.00 | 0.00 | 0.00 | 84 | 1012.5 |
| 20260506145022 | 26 | 138 | 0.0 | 6.4 | 0.00 | 0.00 | 0.00 | 84 | 1012.5 |
| 20260506144934 | 26 | 138 | 0.0 | 6.4 | 0.00 | 0.00 | 0.00 | 84 | 1012.5 |
| 20260506144820 | 26 | 138 | 1.6 | 6.4 | 0.00 | 0.00 | 0.00 | 84 | 1012.5 |
| 20260506144718 | 26 | 140 | 1.6 | 6.4 | 0.00 | 0.00 | 0.00 | 84 | 1012.5 |
| 20260506144629 | 26 | 138 | 1.6 | 6.4 | 0.00 | 0.00 | 0.00 | 84 | 1012.5 |
| 20260506144525 | 26 | 137 | 1.6 | 6.4 | 0.00 | 0.00 | 0.00 | 84 | 1012.5 |
| 20260506144414 | 26 | 137 | 1.6 | 6.4 | 0.00 | 0.00 | 0.00 | 84 | 1012.5 |
| 20260506144320 | 26 | 142 | 1.6 | 8.0 | 0.00 | 0.00 | 0.00 | 84 | 1012.5 |
| 20260506144233 | 25 | 163 | 1.6 | 8.0 | 0.00 | 0.00 | 0.00 | 84 | 1012.5 |
| 20260506144130 | 25 | 163 | 1.6 | 8.0 | 0.00 | 0.00 | 0.00 | 84 | 1012.5 |
| 20260506144033 | 25 | 159 | 1.6 | 8.0 | 0.00 | 0.00 | 0.00 | 84 | 1012.4 |
| 20260506143924 | 25 | 107 | 1.6 | 6.4 | 0.00 | 0.00 | 0.00 | 84 | 1012.4 |
| 20260506143837 | 25 | 105 | 1.6 | 8.0 | 0.00 | 0.00 | 0.00 | 84 | 1012.4 |
| 20260506143723 | 25 | 168 | 3.2 | 8.0 | 0.00 | 0.00 | 0.00 | 84 | 1012.4 |
| 20260506143640 | 25 | 158 | 1.6 | 8.0 | 0.00 | 0.00 | 0.00 | 84 | 1012.4 |
| 20260506143514 | 25 | 140 | 1.6 | 6.4 | 0.00 | 0.00 | 0.00 | 84 | 1012.4 |
| 20260506143428 | 25 | 140 | 3.2 | 6.4 | 0.00 | 0.00 | 0.00 | 84 | 1012.4 |
| 20260506143318 | 25 | 132 | 1.6 | 8.0 | 0.00 | 0.00 | 0.00 | 84 | 1012.4 |
| 20260506143213 | 25 | 131 | 0.0 | 8.0 | 0.00 | 0.00 | 0.00 | 84 | 1012.5 |
| 20260506143148 | 25 | 131 | 0.0 | 8.0 | 0.00 | 0.00 | 0.00 | 84 | 1012.5 |
| 20260506143023 | 25 | 131 | 0.0 | 8.0 | 0.00 | 0.00 | 0.00 | 84 | 1012.4 |
| 20260506142929 | 25 | 131 | 0.0 | 12.9 | 0.00 | 0.00 | 0.00 | 84 | 1012.5 |
| 20260506142816 | 25 | 131 | 1.6 | 12.9 | 0.00 | 0.00 | 0.00 | 84 | 1012.4 |
| 20260506142723 | 25 | 131 | 3.2 | 12.9 | 0.00 | 0.00 | 0.00 | 84 | 1012.4 |
| 20260506142627 | 25 | 131 | 3.2 | 12.9 | 0.00 | 0.00 | 0.00 | 84 | 1012.4 |
| 20260506142529 | 25 | 128 | 1.6 | 12.9 | 0.00 | 0.00 | 0.00 | 84 | 1012.4 |
| 20260506142417 | 25 | 144 | 1.6 | 12.9 | 0.00 | 0.00 | 0.00 | 84 | 1012.4 |
| 20260506142323 | 25 | 144 | 1.6 | 12.9 | 0.00 | 0.00 | 0.00 | 84 | 1012.5 |
| 20260506142212 | 25 | 144 | 1.6 | 12.9 | 0.00 | 0.00 | 0.00 | 84 | 1012.4 |
| 20260506142136 | 25 | 144 | 1.6 | 12.9 | 0.00 | 0.00 | 0.00 | 84 | 1012.4 |
| 20260506142036 | 25 | 144 | 3.2 | 12.9 | 0.00 | 0.00 | 0.00 | 84 | 1012.4 |
| 20260506141942 | 25 | 151 | 1.6 | 8.0 | 0.00 | 0.00 | 0.00 | 84 | 1012.4 |
| 20260506141828 | 25 | 171 | 1.6 | 8.0 | 0.00 | 0.00 | 0.00 | 84 | 1012.4 |
| 20260506141713 | 25 | 178 | 3.2 | 8.0 | 0.00 | 0.00 | 0.00 | 84 | 1012.4 |
| 20260506141640 | 25 | 149 | 3.2 | 4.8 | 0.00 | 0.00 | 0.00 | 84 | 1012.4 |
| 20260506141516 | 25 | 132 | 1.6 | 4.8 | 0.00 | 0.00 | 0.00 | 85 | 1012.4 |
| 20260506141421 | 25 | 144 | 0.0 | 6.4 | 0.00 | 0.00 | 0.00 | 85 | 1012.4 |
| 20260506141335 | 25 | 144 | 1.6 | 6.4 | 0.00 | 0.00 | 0.00 | 85 | 1012.4 |
| 20260506141212 | 25 | 144 | 0.0 | 6.4 | 0.00 | 0.00 | 0.00 | 85 | 1012.3 |
| 20260506141137 | 25 | 144 | 0.0 | 6.4 | 0.00 | 0.00 | 0.00 | 85 | 1012.3 |
| 20260506141016 | 25 | 144 | 1.6 | 6.4 | 0.00 | 0.00 | 0.00 | 85 | 1012.4 |
| 20260506140929 | 25 | 143 | 0.0 | 6.4 | 0.00 | 0.00 | 0.00 | 85 | 1012.3 |
| 20260506140814 | 25 | 142 | 1.6 | 6.4 | 0.00 | 0.00 | 0.00 | 85 | 1012.3 |
| 20260506140721 | 25 | 142 | 1.6 | 6.4 | 0.00 | 0.00 | 0.00 | 85 | 1012.3 |
| 20260506140646 | 25 | 143 | 1.6 | 6.4 | 0.00 | 0.00 | 0.00 | 85 | 1012.3 |
| 20260506140523 | 25 | 144 | 1.6 | 6.4 | 0.00 | 0.00 | 0.00 | 85 | 1012.3 |
| 20260506140435 | 25 | 148 | 3.2 | 6.4 | 0.00 | 0.00 | 0.00 | 85 | 1012.3 |
| 20260506140321 | 25 | 147 | 3.2 | 12.9 | 0.00 | 0.00 | 0.00 | 85 | 1012.2 |
| 20260506140238 | 25 | 179 | 3.2 | 12.9 | 0.00 | 0.00 | 0.00 | 85 | 1012.2 |
| 20260506140131 | 25 | 140 | 1.6 | 12.9 | 0.00 | 0.00 | 0.00 | 85 | 1012.2 |
| 20260506140026 | 25 | 129 | 1.6 | 12.9 | 0.00 | 0.00 | 0.00 | 85 | 1012.2 |
| 20260506135916 | 25 | 189 | 0.0 | 12.9 | 0.00 | 0.00 | 0.00 | 85 | 1012.2 |
| 20260506135828 | 25 | 189 | 0.0 | 12.9 | 0.00 | 0.00 | 0.00 | 85 | 1012.2 |
| 20260506135716 | 25 | 189 | 1.6 | 12.9 | 0.00 | 0.00 | 0.00 | 85 | 1012.2 |
| 20260506135631 | 25 | 189 | 3.2 | 12.9 | 0.00 | 0.00 | 0.00 | 85 | 1012.2 |
| 20260506135533 | 25 | 119 | 3.2 | 12.9 | 0.00 | 0.00 | 0.00 | 85 | 1012.2 |
| 20260506135425 | 25 | 112 | 3.2 | 11.3 | 0.00 | 0.00 | 0.00 | 85 | 1012.2 |
| 20260506135330 | 25 | 137 | 1.6 | 11.3 | 0.00 | 0.00 | 0.00 | 85 | 1012.2 |
| 20260506135216 | 25 | 134 | 0.0 | 11.3 | 0.00 | 0.00 | 0.00 | 85 | 1012.1 |
| 20260506135201 | 25 | 134 | 0.0 | 11.3 | 0.00 | 0.00 | 0.00 | 85 | 1012.2 |
| 20260506135034 | 25 | 169 | 1.6 | 11.3 | 0.00 | 0.00 | 0.00 | 85 | 1012.1 |
| 20260506134927 | 25 | 169 | 1.6 | 11.3 | 0.00 | 0.00 | 0.00 | 85 | 1012.1 |
| 20260506134818 | 25 | 166 | 1.6 | 11.3 | 0.00 | 0.00 | 0.00 | 86 | 1012.2 |
| 20260506134715 | 25 | 201 | 4.8 | 11.3 | 0.00 | 0.00 | 0.00 | 86 | 1012.1 |
| 20260506134626 | 25 | 222 | 4.8 | 11.3 | 0.00 | 0.00 | 0.00 | 86 | 1012.2 |
| 20260506134521 | 25 | 156 | 3.2 | 8.0 | 0.00 | 0.00 | 0.00 | 86 | 1012.1 |
| 20260506134426 | 25 | 128 | 3.2 | 8.0 | 0.00 | 0.00 | 0.00 | 86 | 1012.2 |
| 20260506134339 | 25 | 168 | 3.2 | 8.0 | 0.00 | 0.00 | 0.00 | 86 | 1012.2 |
| 20260506134239 | 25 | 158 | 3.2 | 11.3 | 0.00 | 0.00 | 0.00 | 86 | 1012.2 |
| 20260506134152 | 25 | 130 | 1.6 | 11.3 | 0.00 | 0.00 | 0.00 | 86 | 1012.2 |
| 20260506134027 | 25 | 165 | 1.6 | 11.3 | 0.00 | 0.00 | 0.00 | 86 | 1012.2 |
| 20260506133912 | 25 | 163 | 1.6 | 11.3 | 0.00 | 0.00 | 0.00 | 86 | 1012.2 |
| 20260506133827 | 25 | 155 | 0.0 | 11.3 | 0.00 | 0.00 | 0.00 | 86 | 1012.2 |
| 20260506133722 | 25 | 155 | 1.6 | 11.3 | 0.00 | 0.00 | 0.00 | 86 | 1012.1 |
| 20260506133652 | 25 | 155 | 3.2 | 11.3 | 0.00 | 0.00 | 0.00 | 86 | 1012.1 |
| 20260506133556 | 25 | 177 | 3.2 | 11.3 | 0.00 | 0.00 | 0.00 | 86 | 1012.1 |
| 20260506133420 | 25 | 192 | 3.2 | 11.3 | 0.00 | 0.00 | 0.00 | 86 | 1012.0 |
| 20260506133326 | 25 | 189 | 3.2 | 9.7 | 0.00 | 0.00 | 0.00 | 86 | 1012.0 |
| 20260506133220 | 25 | 159 | 3.2 | 8.0 | 0.00 | 0.00 | 0.00 | 86 | 1012.0 |
| 20260506133134 | 25 | 140 | 1.6 | 8.0 | 0.00 | 0.00 | 0.00 | 86 | 1012.0 |
| 20260506133012 | 25 | 140 | 1.6 | 8.0 | 0.00 | 0.00 | 0.00 | 86 | 1011.9 |
| 20260506132917 | 25 | 141 | 3.2 | 8.0 | 0.00 | 0.00 | 0.00 | 86 | 1011.9 |
| 20260506132831 | 25 | 138 | 3.2 | 8.0 | 0.00 | 0.00 | 0.00 | 86 | 1011.9 |
| 20260506132717 | 25 | 134 | 1.6 | 8.0 | 0.00 | 0.00 | 0.00 | 86 | 1011.9 |
| 20260506132632 | 25 | 135 | 1.6 | 6.4 | 0.00 | 0.00 | 0.00 | 86 | 1011.9 |
| 20260506132534 | 25 | 134 | 0.0 | 6.4 | 0.00 | 0.00 | 0.00 | 86 | 1011.9 |
| 20260506132444 | 25 | 178 | 0.0 | 8.0 | 0.00 | 0.00 | 0.00 | 86 | 1011.9 |
| 20260506132328 | 25 | 178 | 1.6 | 8.0 | 0.00 | 0.00 | 0.00 | 86 | 1011.9 |
| 20260506132232 | 25 | 145 | 1.6 | 8.0 | 0.00 | 0.00 | 0.00 | 86 | 1011.9 |
| 20260506132145 | 25 | 145 | 1.6 | 8.0 | 0.00 | 0.00 | 0.00 | 86 | 1011.9 |
| 20260506132012 | 25 | 146 | 0.0 | 8.0 | 0.00 | 0.00 | 0.00 | 86 | 1011.9 |
| 20260506131926 | 25 | 146 | 0.0 | 8.0 | 0.00 | 0.00 | 0.00 | 86 | 1011.9 |
| 20260506131816 | 25 | 146 | 0.0 | 8.0 | 0.00 | 0.00 | 0.00 | 86 | 1011.8 |
| 20260506131728 | 25 | 146 | 1.6 | 8.0 | 0.00 | 0.00 | 0.00 | 86 | 1011.8 |
| 20260506131624 | 25 | 146 | 1.6 | 8.0 | 0.00 | 0.00 | 0.00 | 86 | 1011.8 |
| 20260506131546 | 24 | 174 | 1.6 | 6.4 | 0.00 | 0.00 | 0.00 | 86 | 1011.8 |
| 20260506131431 | 24 | 174 | 0.0 | 6.4 | 0.00 | 0.00 | 0.00 | 86 | 1011.8 |
| 20260506131318 | 25 | 174 | 1.6 | 6.4 | 0.00 | 0.00 | 0.00 | 86 | 1011.8 |
| 20260506131213 | 24 | 174 | 1.6 | 6.4 | 0.00 | 0.00 | 0.00 | 86 | 1011.8 |
| 20260506131129 | 24 | 136 | 3.2 | 6.4 | 0.00 | 0.00 | 0.00 | 86 | 1011.8 |
| 20260506131030 | 24 | 136 | 3.2 | 12.9 | 0.00 | 0.00 | 0.00 | 86 | 1011.7 |
| 20260506130939 | 24 | 136 | 1.6 | 12.9 | 0.00 | 0.00 | 0.00 | 86 | 1011.7 |
| 20260506130817 | 24 | 142 | 0.0 | 12.9 | 0.00 | 0.00 | 0.00 | 86 | 1011.7 |
| 20260506130537 | 24 | 138 | 1.6 | 12.9 | 0.00 | 0.00 | 0.00 | 86 | 1011.7 |
| 20260506130427 | 24 | 145 | 3.2 | 12.9 | 0.00 | 0.00 | 0.00 | 86 | 1011.7 |
| 20260506130333 | 24 | 167 | 3.2 | 12.9 | 0.00 | 0.00 | 0.00 | 86 | 1011.7 |
| 20260506130219 | 24 | 128 | 3.2 | 12.9 | 0.00 | 0.00 | 0.00 | 86 | 1011.7 |
| 20260506130142 | 24 | 127 | 3.2 | 12.9 | 0.00 | 0.00 | 0.00 | 86 | 1011.7 |
| 20260506130018 | 24 | 158 | 3.2 | 8.0 | 0.00 | 0.00 | 0.00 | 86 | 1011.7 |
| 20260506125923 | 24 | 124 | 3.2 | 8.0 | 0.00 | 0.00 | 0.00 | 86 | 1011.7 |
| 20260506125840 | 24 | 134 | 4.8 | 8.0 | 0.00 | 0.00 | 0.00 | 86 | 1011.7 |
| 20260506125717 | 24 | 143 | 3.2 | 8.0 | 0.00 | 0.00 | 0.00 | 86 | 1011.7 |
| 20260506125627 | 24 | 156 | 1.6 | 9.7 | 0.00 | 0.00 | 0.00 | 86 | 1011.8 |
| 20260506125521 | 24 | 164 | 1.6 | 9.7 | 0.00 | 0.00 | 0.00 | 86 | 1011.8 |
| 20260506125429 | 24 | 174 | 1.6 | 9.7 | 0.00 | 0.00 | 0.00 | 86 | 1011.8 |
| 20260506125318 | 24 | 111 | 1.6 | 9.7 | 0.00 | 0.00 | 0.00 | 86 | 1011.8 |
| 20260506125221 | 24 | 136 | 0.0 | 9.7 | 0.00 | 0.00 | 0.00 | 86 | 1011.8 |
| 20260506125125 | 24 | 136 | 1.6 | 9.7 | 0.00 | 0.00 | 0.00 | 86 | 1011.8 |
| 20260506125027 | 24 | 134 | 1.6 | 9.7 | 0.00 | 0.00 | 0.00 | 86 | 1011.8 |
| 20260506124933 | 24 | 167 | 1.6 | 9.7 | 0.00 | 0.00 | 0.00 | 86 | 1011.7 |
| 20260506124846 | 24 | 167 | 3.2 | 9.7 | 0.00 | 0.00 | 0.00 | 86 | 1011.7 |
| 20260506124714 | 24 | 168 | 3.2 | 9.7 | 0.00 | 0.00 | 0.00 | 86 | 1011.7 |
| 20260506124657 | 24 | 143 | 1.6 | 8.0 | 0.00 | 0.00 | 0.00 | 86 | 1011.7 |
| 20260506124530 | 24 | 139 | 1.6 | 8.0 | 0.00 | 0.00 | 0.00 | 86 | 1011.7 |
| 20260506124417 | 24 | 138 | 3.2 | 8.0 | 0.00 | 0.00 | 0.00 | 86 | 1011.7 |
| 20260506124323 | 24 | 138 | 3.2 | 8.0 | 0.00 | 0.00 | 0.00 | 86 | 1011.7 |
| 20260506124219 | 24 | 148 | 1.6 | 8.0 | 0.00 | 0.00 | 0.00 | 86 | 1011.7 |
| 20260506124136 | 24 | 151 | 3.2 | 8.0 | 0.00 | 0.00 | 0.00 | 86 | 1011.7 |
| 20260506124011 | 24 | 116 | 1.6 | 8.0 | 0.00 | 0.00 | 0.00 | 86 | 1011.7 |
| 20260506123944 | 24 | 129 | 1.6 | 8.0 | 0.00 | 0.00 | 0.00 | 86 | 1011.7 |
| 20260506123856 | 24 | 129 | 1.6 | 8.0 | 0.00 | 0.00 | 0.00 | 86 | 1011.7 |
| 20260506123721 | 24 | 163 | 0.0 | 8.0 | 0.00 | 0.00 | 0.00 | 86 | 1011.7 |
| 20260506123645 | 24 | 163 | 1.6 | 8.0 | 0.00 | 0.00 | 0.00 | 86 | 1011.7 |
| 20260506123511 | 24 | 163 | 1.6 | 9.7 | 0.00 | 0.00 | 0.00 | 86 | 1011.6 |
| 20260506123429 | 24 | 150 | 0.0 | 6.4 | 0.00 | 0.00 | 0.00 | 86 | 1011.6 |
| 20260506123316 | 24 | 150 | 1.6 | 6.4 | 0.00 | 0.00 | 0.00 | 86 | 1011.6 |
| 20260506123212 | 24 | 148 | 0.0 | 6.4 | 0.00 | 0.00 | 0.00 | 86 | 1011.6 |
| 20260506123124 | 24 | 148 | 1.6 | 6.4 | 0.00 | 0.00 | 0.00 | 86 | 1011.6 |
| 20260506123019 | 24 | 149 | 1.6 | 6.4 | 0.00 | 0.00 | 0.00 | 86 | 1011.6 |
| 20260506122935 | 24 | 139 | 1.6 | 6.4 | 0.00 | 0.00 | 0.00 | 86 | 1011.6 |
| 20260506122841 | 24 | 143 | 1.6 | 6.4 | 0.00 | 0.00 | 0.00 | 86 | 1011.6 |
| 20260506122718 | 24 | 143 | 1.6 | 6.4 | 0.00 | 0.00 | 0.00 | 86 | 1011.6 |
| 20260506122651 | 24 | 142 | 1.6 | 6.4 | 0.00 | 0.00 | 0.00 | 86 | 1011.5 |
| 20260506122533 | 24 | 142 | 1.6 | 6.4 | 0.00 | 0.00 | 0.00 | 86 | 1011.5 |
| 20260506122418 | 24 | 138 | 3.2 | 6.4 | 0.00 | 0.00 | 0.00 | 86 | 1011.5 |
| 20260506122324 | 24 | 143 | 3.2 | 6.4 | 0.00 | 0.00 | 0.00 | 86 | 1011.5 |
| 20260506122214 | 24 | 143 | 3.2 | 6.4 | 0.00 | 0.00 | 0.00 | 86 | 1011.5 |
| 20260506122137 | 24 | 144 | 3.2 | 6.4 | 0.00 | 0.00 | 0.00 | 86 | 1011.5 |
| 20260506122050 | 24 | 148 | 1.6 | 8.0 | 0.00 | 0.00 | 0.00 | 86 | 1011.5 |
| 20260506121942 | 24 | 148 | 1.6 | 8.0 | 0.00 | 0.00 | 0.00 | 86 | 1011.5 |
| 20260506121826 | 24 | 155 | 1.6 | 4.8 | 0.00 | 0.00 | 0.00 | 86 | 1011.4 |
| 20260506121712 | 24 | 151 | 1.6 | 4.8 | 0.00 | 0.00 | 0.00 | 86 | 1011.4 |
| 20260506121642 | 24 | 151 | 0.0 | 4.8 | 0.00 | 0.00 | 0.00 | 86 | 1011.4 |
| 20260506121516 | 23 | 153 | 0.0 | 3.2 | 0.00 | 0.00 | 0.00 | 86 | 1011.4 |
| 20260506121449 | 23 | 153 | 0.0 | 3.2 | 0.00 | 0.00 | 0.00 | 86 | 1011.4 |
| 20260506121337 | 23 | 153 | 0.0 | 4.8 | 0.00 | 0.00 | 0.00 | 86 | 1011.4 |
| 20260506121247 | 23 | 153 | 0.0 | 4.8 | 0.00 | 0.00 | 0.00 | 86 | 1011.4 |
| 20260506121209 | 23 | 153 | 0.0 | 4.8 | 0.00 | 0.00 | 0.00 | 86 | 1011.3 |
| 20260506121022 | 23 | 152 | 0.0 | 4.8 | 0.00 | 0.00 | 0.00 | 86 | 1011.3 |
| 20260506120931 | 23 | 152 | 1.6 | 4.8 | 0.00 | 0.00 | 0.00 | 86 | 1011.3 |
| 20260506120844 | 23 | 152 | 1.6 | 4.8 | 0.00 | 0.00 | 0.00 | 86 | 1011.3 |
| 20260506120720 | 23 | 153 | 1.6 | 4.8 | 0.00 | 0.00 | 0.00 | 86 | 1011.3 |
| 20260506120631 | 23 | 153 | 1.6 | 4.8 | 0.00 | 0.00 | 0.00 | 86 | 1011.3 |
| 20260506120527 | 23 | 151 | 1.6 | 4.8 | 0.00 | 0.00 | 0.00 | 86 | 1011.3 |
| 20260506120436 | 23 | 145 | 1.6 | 4.8 | 0.00 | 0.00 | 0.00 | 86 | 1011.3 |
| 20260506120312 | 23 | 145 | 0.0 | 4.8 | 0.00 | 0.00 | 0.00 | 86 | 1011.2 |
| 20260506120218 | 23 | 144 | 0.0 | 4.8 | 0.00 | 0.00 | 0.00 | 86 | 1011.2 |
| 20260506120140 | 23 | 144 | 0.0 | 4.8 | 0.00 | 0.00 | 0.00 | 86 | 1011.2 |
| 20260506120016 | 23 | 144 | 0.0 | 4.8 | 0.00 | 0.00 | 0.00 | 86 | 1011.2 |
| 20260506115922 | 23 | 144 | 1.6 | 4.8 | 0.00 | 0.00 | 0.00 | 86 | 1011.2 |
| 20260506115829 | 23 | 142 | 0.0 | 4.8 | 0.00 | 0.00 | 0.00 | 86 | 1011.2 |
| 20260506115718 | 23 | 142 | 0.0 | 4.8 | 0.00 | 0.00 | 0.00 | 86 | 1011.2 |
| 20260506115639 | 23 | 142 | 0.0 | 4.8 | 0.00 | 0.00 | 0.00 | 86 | 1011.2 |
| 20260506115516 | 23 | 142 | 0.0 | 4.8 | 0.00 | 0.00 | 0.00 | 86 | 1011.2 |
| 20260506115421 | 23 | 142 | 0.0 | 4.8 | 0.00 | 0.00 | 0.00 | 86 | 1011.1 |
| 20260506115334 | 23 | 142 | 0.0 | 4.8 | 0.00 | 0.00 | 0.00 | 86 | 1011.1 |
| 20260506115213 | 23 | 142 | 0.0 | 4.8 | 0.00 | 0.00 | 0.00 | 86 | 1011.0 |
| 20260506115146 | 23 | 142 | 1.6 | 4.8 | 0.00 | 0.00 | 0.00 | 86 | 1011.0 |
| 20260506115040 | 23 | 143 | 1.6 | 4.8 | 0.00 | 0.00 | 0.00 | 86 | 1010.9 |
| 20260506114931 | 23 | 143 | 1.6 | 4.8 | 0.00 | 0.00 | 0.00 | 86 | 1010.9 |
| 20260506114817 | 23 | 143 | 1.6 | 4.8 | 0.00 | 0.00 | 0.00 | 86 | 1010.9 |
| 20260506114713 | 23 | 146 | 1.6 | 4.8 | 0.00 | 0.00 | 0.00 | 86 | 1010.8 |
| 20260506114628 | 23 | 151 | 1.6 | 3.2 | 0.00 | 0.00 | 0.00 | 86 | 1010.8 |
| 20260506114526 | 23 | 151 | 0.0 | 3.2 | 0.00 | 0.00 | 0.00 | 86 | 1010.9 |
| 20260506114412 | 23 | 151 | 0.0 | 3.2 | 0.00 | 0.00 | 0.00 | 86 | 1010.8 |
| 20260506114321 | 23 | 151 | 0.0 | 3.2 | 0.00 | 0.00 | 0.00 | 86 | 1010.8 |
| 20260506114218 | 23 | 150 | 0.0 | 3.2 | 0.00 | 0.00 | 0.00 | 86 | 1010.8 |
| 20260506114149 | 23 | 151 | 0.0 | 3.2 | 0.00 | 0.00 | 0.00 | 86 | 1010.8 |
| 20260506114028 | 23 | 151 | 1.6 | 8.0 | 0.00 | 0.00 | 0.00 | 86 | 1010.8 |
| 20260506113917 | 23 | 153 | 0.0 | 8.0 | 0.00 | 0.00 | 0.00 | 86 | 1010.8 |
| 20260506113849 | 23 | 153 | 0.0 | 8.0 | 0.00 | 0.00 | 0.00 | 86 | 1010.8 |
| 20260506113737 | 23 | 153 | 0.0 | 8.0 | 0.00 | 0.00 | 0.00 | 86 | 1010.8 |
| 20260506113637 | 23 | 153 | 1.6 | 8.0 | 0.00 | 0.00 | 0.00 | 86 | 1010.8 |
| 20260506113532 | 23 | 150 | 0.0 | 8.0 | 0.00 | 0.00 | 0.00 | 86 | 1010.9 |
| 20260506113416 | 23 | 150 | 0.0 | 8.0 | 0.00 | 0.00 | 0.00 | 85 | 1010.8 |
| 20260506113333 | 23 | 152 | 1.6 | 8.0 | 0.00 | 0.00 | 0.00 | 86 | 1010.8 |
| 20260506113218 | 23 | 152 | 3.2 | 8.0 | 0.00 | 0.00 | 0.00 | 86 | 1010.8 |
| 20260506113133 | 23 | 152 | 1.6 | 6.4 | 0.00 | 0.00 | 0.00 | 86 | 1010.8 |
| 20260506113037 | 23 | 155 | 0.0 | 4.8 | 0.00 | 0.00 | 0.00 | 86 | 1010.8 |
| 20260506112921 | 23 | 155 | 1.6 | 4.8 | 0.00 | 0.00 | 0.00 | 85 | 1010.8 |
| 20260506112828 | 23 | 153 | 1.6 | 4.8 | 0.00 | 0.00 | 0.00 | 85 | 1010.9 |
| 20260506112735 | 23 | 154 | 1.6 | 4.8 | 0.00 | 0.00 | 0.00 | 85 | 1010.8 |
| 20260506112640 | 23 | 153 | 1.6 | 4.8 | 0.00 | 0.00 | 0.00 | 85 | 1010.8 |
| 20260506112515 | 23 | 132 | 0.0 | 4.8 | 0.00 | 0.00 | 0.00 | 85 | 1010.8 |
| 20260506112429 | 23 | 132 | 0.0 | 4.8 | 0.00 | 0.00 | 0.00 | 85 | 1010.8 |
| 20260506112314 | 23 | 132 | 0.0 | 4.8 | 0.00 | 0.00 | 0.00 | 85 | 1010.7 |
| 20260506112247 | 23 | 132 | 0.0 | 4.8 | 0.00 | 0.00 | 0.00 | 85 | 1010.7 |
| 20260506112210 | 23 | 132 | 1.6 | 4.8 | 0.00 | 0.00 | 0.00 | 85 | 1010.7 |
| 20260506112028 | 23 | 132 | 1.6 | 4.8 | 0.00 | 0.00 | 0.00 | 85 | 1010.7 |
| 20260506111916 | 23 | 132 | 0.0 | 4.8 | 0.00 | 0.00 | 0.00 | 85 | 1010.7 |
| 20260506111849 | 23 | 132 | 0.0 | 4.8 | 0.00 | 0.00 | 0.00 | 85 | 1010.7 |
| 20260506111713 | 23 | 132 | 1.6 | 4.8 | 0.00 | 0.00 | 0.00 | 85 | 1010.6 |
| 20260506111630 | 23 | 132 | 1.6 | 4.8 | 0.00 | 0.00 | 0.00 | 85 | 1010.6 |
| 20260506111531 | 23 | 132 | 1.6 | 4.8 | 0.00 | 0.00 | 0.00 | 85 | 1010.6 |
| 20260506111422 | 23 | 130 | 0.0 | 4.8 | 0.00 | 0.00 | 0.00 | 85 | 1010.6 |
| 20260506111326 | 23 | 130 | 0.0 | 4.8 | 0.00 | 0.00 | 0.00 | 85 | 1010.6 |
| 20260506111243 | 23 | 130 | 1.6 | 4.8 | 0.00 | 0.00 | 0.00 | 85 | 1010.5 |
| 20260506111154 | 23 | 130 | 1.6 | 4.8 | 0.00 | 0.00 | 0.00 | 85 | 1010.6 |
| 20260506111035 | 23 | 133 | 1.6 | 4.8 | 0.00 | 0.00 | 0.00 | 85 | 1010.6 |
| 20260506110921 | 23 | 132 | 0.0 | 3.2 | 0.00 | 0.00 | 0.00 | 85 | 1010.6 |
| 20260506110831 | 23 | 132 | 0.0 | 3.2 | 0.00 | 0.00 | 0.00 | 85 | 1010.6 |
| 20260506110717 | 23 | 132 | 0.0 | 3.2 | 0.00 | 0.00 | 0.00 | 85 | 1010.6 |
| 20260506110701 | 23 | 132 | 0.0 | 3.2 | 0.00 | 0.00 | 0.00 | 85 | 1010.6 |
| 20260506110517 | 23 | 132 | 0.0 | 3.2 | 0.00 | 0.00 | 0.00 | 85 | 1010.7 |
| 20260506110422 | 23 | 132 | 1.6 | 3.2 | 0.00 | 0.00 | 0.00 | 85 | 1010.7 |
| 20260506110312 | 23 | 132 | 1.6 | 3.2 | 0.00 | 0.00 | 0.00 | 85 | 1010.7 |
| 20260506110227 | 23 | 132 | 0.0 | 3.2 | 0.00 | 0.00 | 0.00 | 85 | 1010.7 |
| 20260506110210 | 23 | 132 | 1.6 | 3.2 | 0.00 | 0.00 | 0.00 | 85 | 1010.8 |
| 20260506110024 | 23 | 132 | 1.6 | 3.2 | 0.00 | 0.00 | 0.00 | 85 | 1010.8 |
| 20260506105930 | 23 | 132 | 1.6 | 6.4 | 0.00 | 0.00 | 0.00 | 85 | 1010.8 |
| 20260506105816 | 23 | 129 | 1.6 | 6.4 | 0.00 | 0.00 | 0.00 | 85 | 1010.8 |
| 20260506105722 | 23 | 129 | 1.6 | 6.4 | 0.00 | 0.00 | 0.00 | 85 | 1010.8 |
| 20260506105626 | 23 | 129 | 0.0 | 6.4 | 0.00 | 0.00 | 0.00 | 85 | 1010.8 |
| 20260506105528 | 23 | 129 | 0.0 | 6.4 | 0.00 | 0.00 | 0.00 | 85 | 1010.8 |
| 20260506105413 | 23 | 129 | 0.0 | 6.4 | 0.00 | 0.00 | 0.00 | 85 | 1010.8 |
| 20260506105320 | 23 | 129 | 1.6 | 6.4 | 0.00 | 0.00 | 0.00 | 85 | 1010.8 |
| 20260506105243 | 23 | 129 | 1.6 | 6.4 | 0.00 | 0.00 | 0.00 | 85 | 1010.7 |
| 20260506105130 | 23 | 129 | 1.6 | 6.4 | 0.00 | 0.00 | 0.00 | 85 | 1010.7 |
| 20260506105031 | 23 | 134 | 0.0 | 6.4 | 0.00 | 0.00 | 0.00 | 85 | 1010.6 |
| 20260506104918 | 23 | 134 | 0.0 | 6.4 | 0.00 | 0.00 | 0.00 | 85 | 1010.6 |
| 20260506104844 | 23 | 128 | 0.0 | 6.4 | 0.00 | 0.00 | 0.00 | 85 | 1010.6 |
| 20260506104737 | 23 | 128 | 1.6 | 6.4 | 0.00 | 0.00 | 0.00 | 85 | 1010.6 |
| 20260506104630 | 23 | 128 | 1.6 | 6.4 | 0.00 | 0.00 | 0.00 | 85 | 1010.6 |
| 20260506104532 | 23 | 128 | 3.2 | 6.4 | 0.00 | 0.00 | 0.00 | 85 | 1010.7 |
| 20260506104443 | 23 | 128 | 1.6 | 6.4 | 0.00 | 0.00 | 0.00 | 85 | 1010.6 |
| 20260506104328 | 23 | 123 | 0.0 | 4.8 | 0.00 | 0.00 | 0.00 | 85 | 1010.7 |
| 20260506104223 | 23 | 163 | 0.0 | 4.8 | 0.00 | 0.00 | 0.00 | 85 | 1010.7 |
| 20260506104137 | 23 | 163 | 0.0 | 4.8 | 0.00 | 0.00 | 0.00 | 85 | 1010.7 |
| 20260506104012 | 23 | 163 | 0.0 | 4.8 | 0.00 | 0.00 | 0.00 | 85 | 1010.8 |
| 20260506103929 | 23 | 163 | 1.6 | 6.4 | 0.00 | 0.00 | 0.00 | 85 | 1010.8 |
| 20260506103816 | 23 | 148 | 0.0 | 6.4 | 0.00 | 0.00 | 0.00 | 85 | 1010.8 |
| 20260506103712 | 23 | 148 | 1.6 | 6.4 | 0.00 | 0.00 | 0.00 | 85 | 1010.8 |
| 20260506103644 | 23 | 148 | 1.6 | 6.4 | 0.00 | 0.00 | 0.00 | 85 | 1010.8 |
| 20260506103518 | 23 | 148 | 1.6 | 6.4 | 0.00 | 0.00 | 0.00 | 85 | 1010.8 |
| 20260506103423 | 23 | 148 | 0.0 | 6.4 | 0.00 | 0.00 | 0.00 | 85 | 1010.7 |
| 20260506103340 | 23 | 148 | 0.0 | 6.4 | 0.00 | 0.00 | 0.00 | 85 | 1010.7 |
| 20260506103216 | 23 | 148 | 1.6 | 6.4 | 0.00 | 0.00 | 0.00 | 85 | 1010.8 |
| 20260506103148 | 23 | 148 | 1.6 | 6.4 | 0.00 | 0.00 | 0.00 | 85 | 1010.7 |
| 20260506103023 | 23 | 148 | 1.6 | 6.4 | 0.00 | 0.00 | 0.00 | 85 | 1010.7 |
| 20260506102930 | 23 | 146 | 0.0 | 6.4 | 0.00 | 0.00 | 0.00 | 85 | 1010.7 |
| 20260506102816 | 23 | 146 | 0.0 | 4.8 | 0.00 | 0.00 | 0.00 | 85 | 1010.7 |
| 20260506102717 | 23 | 146 | 0.0 | 4.8 | 0.00 | 0.00 | 0.00 | 85 | 1010.8 |
| 20260506102628 | 23 | 146 | 0.0 | 4.8 | 0.00 | 0.00 | 0.00 | 85 | 1010.8 |
| 20260506102522 | 23 | 146 | 0.0 | 4.8 | 0.00 | 0.00 | 0.00 | 85 | 1010.8 |
| 20260506102435 | 23 | 146 | 0.0 | 4.8 | 0.00 | 0.00 | 0.00 | 85 | 1010.8 |
| 20260506102342 | 23 | 146 | 1.6 | 4.8 | 0.00 | 0.00 | 0.00 | 85 | 1010.8 |
| 20260506102222 | 23 | 146 | 1.6 | 4.8 | 0.00 | 0.00 | 0.00 | 85 | 1010.8 |
| 20260506102132 | 23 | 146 | 0.0 | 1.6 | 0.00 | 0.00 | 0.00 | 85 | 1010.7 |
| 20260506102028 | 23 | 146 | 0.0 | 1.6 | 0.00 | 0.00 | 0.00 | 85 | 1010.8 |
| 20260506101913 | 23 | 146 | 0.0 | 1.6 | 0.00 | 0.00 | 0.00 | 85 | 1010.7 |
| 20260506101827 | 23 | 146 | 0.0 | 1.6 | 0.00 | 0.00 | 0.00 | 85 | 1010.7 |
| 20260506101712 | 23 | 146 | 0.0 | 1.6 | 0.00 | 0.00 | 0.00 | 85 | 1010.7 |
| 20260506101640 | 23 | 146 | 0.0 | 1.6 | 0.00 | 0.00 | 0.00 | 85 | 1010.7 |
| 20260506101535 | 23 | 146 | 0.0 | 1.6 | 0.00 | 0.00 | 0.00 | 85 | 1010.7 |
| 20260506101421 | 23 | 146 | 0.0 | 1.6 | 0.00 | 0.00 | 0.00 | 85 | 1010.7 |
| 20260506101335 | 23 | 146 | 0.0 | 1.6 | 0.00 | 0.00 | 0.00 | 85 | 1010.7 |
| 20260506101240 | 23 | 146 | 0.0 | 1.6 | 0.00 | 0.00 | 0.00 | 85 | 1010.7 |
| 20260506101141 | 23 | 146 | 0.0 | 1.6 | 0.00 | 0.00 | 0.00 | 85 | 1010.7 |
| 20260506101019 | 23 | 146 | 0.0 | 3.2 | 0.00 | 0.00 | 0.00 | 85 | 1010.7 |
| 20260506100925 | 23 | 146 | 0.0 | 3.2 | 0.00 | 0.00 | 0.00 | 85 | 1010.7 |
| 20260506100838 | 23 | 146 | 0.0 | 3.2 | 0.00 | 0.00 | 0.00 | 85 | 1010.7 |
| 20260506100715 | 23 | 146 | 0.0 | 3.2 | 0.00 | 0.00 | 0.00 | 85 | 1010.7 |
| 20260506100640 | 23 | 146 | 0.0 | 3.2 | 0.00 | 0.00 | 0.00 | 85 | 1010.7 |
| 20260506100516 | 23 | 146 | 0.0 | 3.2 | 0.00 | 0.00 | 0.00 | 85 | 1010.7 |
| 20260506100413 | 23 | 146 | 0.0 | 4.8 | 0.00 | 0.00 | 0.00 | 85 | 1010.7 |
| 20260506100320 | 23 | 146 | 0.0 | 4.8 | 0.00 | 0.00 | 0.00 | 85 | 1010.7 |
| 20260506100217 | 23 | 146 | 0.0 | 4.8 | 0.00 | 0.00 | 0.00 | 85 | 1010.7 |
| 20260506100128 | 23 | 146 | 0.0 | 4.8 | 0.00 | 0.00 | 0.00 | 85 | 1010.8 |
| 20260506100023 | 23 | 146 | 0.0 | 4.8 | 0.00 | 0.00 | 0.00 | 85 | 1010.7 |
| 20260506095912 | 23 | 146 | 0.0 | 4.8 | 0.00 | 0.00 | 0.00 | 85 | 1010.8 |
| 20260506095819 | 23 | 146 | 0.0 | 4.8 | 0.00 | 0.00 | 0.00 | 85 | 1010.8 |
| 20260506095722 | 23 | 146 | 1.6 | 4.8 | 0.00 | 0.00 | 0.00 | 85 | 1010.8 |
| 20260506095654 | 23 | 146 | 1.6 | 4.8 | 0.00 | 0.00 | 0.00 | 85 | 1010.8 |
| 20260506095528 | 23 | 146 | 0.0 | 3.2 | 0.00 | 0.00 | 0.00 | 85 | 1010.8 |
| 20260506095413 | 23 | 144 | 0.0 | 3.2 | 0.00 | 0.00 | 0.00 | 85 | 1010.8 |
| 20260506095325 | 23 | 144 | 0.0 | 3.2 | 0.00 | 0.00 | 0.00 | 85 | 1010.8 |
| 20260506095220 | 23 | 144 | 0.0 | 3.2 | 0.00 | 0.00 | 0.00 | 85 | 1010.8 |
| 20260506095132 | 23 | 144 | 0.0 | 3.2 | 0.00 | 0.00 | 0.00 | 85 | 1010.8 |
| 20260506095026 | 23 | 144 | 0.0 | 3.2 | 0.00 | 0.00 | 0.00 | 85 | 1010.8 |
| 20260506094912 | 23 | 144 | 0.0 | 3.2 | 0.00 | 0.00 | 0.00 | 85 | 1010.7 |
| 20260506094829 | 23 | 144 | 0.0 | 3.2 | 0.00 | 0.00 | 0.00 | 85 | 1010.7 |
| 20260506094717 | 23 | 143 | 0.0 | 1.6 | 0.00 | 0.00 | 0.00 | 85 | 1010.7 |
| 20260506094639 | 23 | 143 | 0.0 | 1.6 | 0.00 | 0.00 | 0.00 | 85 | 1010.8 |
| 20260506094515 | 23 | 143 | 0.0 | 1.6 | 0.00 | 0.00 | 0.00 | 85 | 1010.7 |
| 20260506094421 | 23 | 143 | 0.0 | 1.6 | 0.00 | 0.00 | 0.00 | 85 | 1010.8 |
| 20260506094327 | 23 | 143 | 0.0 | 1.6 | 0.00 | 0.00 | 0.00 | 85 | 1010.8 |
| 20260506094238 | 23 | 143 | 0.0 | 3.2 | 0.00 | 0.00 | 0.00 | 85 | 1010.8 |
| 20260506094140 | 23 | 143 | 0.0 | 3.2 | 0.00 | 0.00 | 0.00 | 85 | 1010.8 |
| 20260506094016 | 23 | 143 | 0.0 | 3.2 | 0.00 | 0.00 | 0.00 | 85 | 1010.8 |
| 20260506093929 | 23 | 143 | 0.0 | 3.2 | 0.00 | 0.00 | 0.00 | 85 | 1010.8 |
| 20260506093813 | 23 | 143 | 0.0 | 3.2 | 0.00 | 0.00 | 0.00 | 85 | 1010.8 |
| 20260506093716 | 23 | 143 | 0.0 | 3.2 | 0.00 | 0.00 | 0.00 | 85 | 1010.8 |
| 20260506093627 | 23 | 143 | 0.0 | 3.2 | 0.00 | 0.00 | 0.00 | 85 | 1010.8 |
| 20260506093522 | 23 | 143 | 0.0 | 3.2 | 0.00 | 0.00 | 0.00 | 85 | 1010.8 |
| 20260506093435 | 23 | 143 | 0.0 | 3.2 | 0.00 | 0.00 | 0.00 | 85 | 1010.8 |
| 20260506093321 | 23 | 143 | 0.0 | 3.2 | 0.00 | 0.00 | 0.00 | 85 | 1010.7 |
| 20260506093217 | 23 | 143 | 0.0 | 3.2 | 0.00 | 0.00 | 0.00 | 85 | 1010.7 |
| 20260506093133 | 23 | 143 | 0.0 | 3.2 | 0.00 | 0.00 | 0.00 | 85 | 1010.7 |
| 20260506093028 | 23 | 143 | 0.0 | 3.2 | 0.00 | 0.00 | 0.00 | 85 | 1010.7 |
| 20260506092912 | 23 | 143 | 0.0 | 3.2 | 0.00 | 0.00 | 0.00 | 85 | 1010.7 |
| 20260506092848 | 23 | 143 | 0.0 | 3.2 | 0.00 | 0.00 | 0.00 | 85 | 1010.7 |
| 20260506092722 | 23 | 143 | 0.0 | 3.2 | 0.00 | 0.00 | 0.00 | 85 | 1010.7 |
| 20260506092655 | 23 | 143 | 0.0 | 3.2 | 0.00 | 0.00 | 0.00 | 85 | 1010.7 |
| 20260506092511 | 23 | 141 | 0.0 | 3.2 | 0.00 | 0.00 | 0.00 | 85 | 1010.7 |
| 20260506092419 | 23 | 141 | 0.0 | 3.2 | 0.00 | 0.00 | 0.00 | 85 | 1010.7 |
| 20260506092326 | 23 | 141 | 0.0 | 3.2 | 0.00 | 0.00 | 0.00 | 85 | 1010.7 |
| 20260506092211 | 23 | 141 | 0.0 | 3.2 | 0.00 | 0.00 | 0.00 | 85 | 1010.7 |
| 20260506092156 | 23 | 141 | 0.0 | 3.2 | 0.00 | 0.00 | 0.00 | 85 | 1010.7 |
| 20260506092038 | 23 | 141 | 0.0 | 4.8 | 0.00 | 0.00 | 0.00 | 85 | 1010.7 |
| 20260506091928 | 23 | 141 | 0.0 | 4.8 | 0.00 | 0.00 | 0.00 | 85 | 1010.7 |
| 20260506091813 | 23 | 140 | 0.0 | 4.8 | 0.00 | 0.00 | 0.00 | 85 | 1010.7 |
| 20260506091719 | 23 | 140 | 0.0 | 4.8 | 0.00 | 0.00 | 0.00 | 85 | 1010.7 |
| 20260506091702 | 23 | 140 | 0.0 | 4.8 | 0.00 | 0.00 | 0.00 | 85 | 1010.7 |
| 20260506091542 | 23 | 140 | 0.0 | 4.8 | 0.00 | 0.00 | 0.00 | 85 | 1010.7 |
| 20260506091449 | 23 | 140 | 0.0 | 4.8 | 0.00 | 0.00 | 0.00 | 85 | 1010.7 |
| 20260506091340 | 23 | 140 | 0.0 | 4.8 | 0.00 | 0.00 | 0.00 | 85 | 1010.6 |
| 20260506091303 | 23 | 140 | 1.6 | 4.8 | 0.00 | 0.00 | 0.00 | 85 | 1010.7 |
| 20260506091146 | 23 | 139 | 1.6 | 4.8 | 0.00 | 0.00 | 0.00 | 85 | 1010.7 |
| 20260506091107 | 23 | 140 | 0.0 | 4.8 | 0.00 | 0.00 | 0.00 | 85 | 1010.6 |
| 20260506090951 | 23 | 140 | 0.0 | 4.8 | 0.00 | 0.00 | 0.00 | 85 | 1010.6 |
| 20260506090844 | 23 | 140 | 0.0 | 4.8 | 0.00 | 0.00 | 0.00 | 85 | 1010.6 |
| 20260506090738 | 23 | 140 | 1.6 | 4.8 | 0.00 | 0.00 | 0.00 | 85 | 1010.6 |
| 20260506090710 | 23 | 140 | 0.0 | 4.8 | 0.00 | 0.00 | 0.00 | 85 | 1010.6 |
| 20260506090555 | 23 | 141 | 0.0 | 3.2 | 0.00 | 0.00 | 0.00 | 85 | 1010.6 |
| 20260506090439 | 23 | 141 | 0.0 | 3.2 | 0.00 | 0.00 | 0.00 | 85 | 1010.6 |
| 20260506090413 | 23 | 141 | 1.6 | 3.2 | 0.00 | 0.00 | 0.00 | 85 | 1010.7 |
| 20260506090238 | 23 | 140 | 0.0 | 3.2 | 0.00 | 0.00 | 0.00 | 85 | 1010.6 |
| 20260506090155 | 23 | 140 | 0.0 | 3.2 | 0.00 | 0.00 | 0.00 | 85 | 1010.7 |
| 20260506090056 | 23 | 140 | 0.0 | 3.2 | 0.00 | 0.00 | 0.00 | 85 | 1010.7 |
| 20260506085946 | 23 | 140 | 1.6 | 3.2 | 0.00 | 0.00 | 0.00 | 85 | 1010.7 |
| 20260506085833 | 23 | 140 | 0.0 | 3.2 | 0.00 | 0.00 | 0.00 | 85 | 1010.7 |
| 20260506085738 | 23 | 140 | 0.0 | 3.2 | 0.00 | 0.00 | 0.00 | 85 | 1010.7 |
| 20260506085703 | 23 | 140 | 0.0 | 4.8 | 0.00 | 0.00 | 0.00 | 85 | 1010.7 |
| 20260506085537 | 23 | 140 | 0.0 | 4.8 | 0.00 | 0.00 | 0.00 | 85 | 1010.7 |
| 20260506085511 | 23 | 140 | 0.0 | 4.8 | 0.00 | 0.00 | 0.00 | 85 | 1010.7 |
| 20260506085339 | 23 | 140 | 0.0 | 4.8 | 0.00 | 0.00 | 0.00 | 85 | 1010.7 |
| 20260506085235 | 23 | 140 | 0.0 | 4.8 | 0.00 | 0.00 | 0.00 | 85 | 1010.7 |
| 20260506085207 | 23 | 140 | 0.0 | 4.8 | 0.00 | 0.00 | 0.00 | 85 | 1010.7 |
| 20260506085042 | 23 | 140 | 1.6 | 4.8 | 0.00 | 0.00 | 0.00 | 85 | 1010.7 |
| 20260506084948 | 23 | 140 | 1.6 | 4.8 | 0.00 | 0.00 | 0.00 | 85 | 1010.7 |
| 20260506084840 | 23 | 137 | 1.6 | 4.8 | 0.00 | 0.00 | 0.00 | 84 | 1010.7 |
| 20260506084736 | 23 | 137 | 1.6 | 4.8 | 0.00 | 0.00 | 0.00 | 84 | 1010.6 |
| 20260506084647 | 23 | 137 | 1.6 | 4.8 | 0.00 | 0.00 | 0.00 | 84 | 1010.6 |
| 20260506084541 | 23 | 136 | 0.0 | 3.2 | 0.00 | 0.00 | 0.00 | 84 | 1010.7 |
| 20260506084453 | 23 | 137 | 0.0 | 3.2 | 0.00 | 0.00 | 0.00 | 84 | 1010.7 |
| 20260506084345 | 23 | 137 | 0.0 | 1.6 | 0.00 | 0.00 | 0.00 | 84 | 1010.7 |
| 20260506084242 | 23 | 136 | 0.0 | 1.6 | 0.00 | 0.00 | 0.00 | 84 | 1010.7 |
| 20260506084154 | 23 | 136 | 0.0 | 1.6 | 0.00 | 0.00 | 0.00 | 84 | 1010.7 |
| 20260506084048 | 23 | 136 | 0.0 | 1.6 | 0.00 | 0.00 | 0.00 | 84 | 1010.7 |
| 20260506083935 | 23 | 136 | 0.0 | 1.6 | 0.00 | 0.00 | 0.00 | 84 | 1010.7 |
| 20260506083840 | 23 | 136 | 0.0 | 1.6 | 0.00 | 0.00 | 0.00 | 84 | 1010.7 |
| 20260506083757 | 23 | 136 | 0.0 | 1.6 | 0.00 | 0.00 | 0.00 | 84 | 1010.7 |
| 20260506083720 | 23 | 136 | 0.0 | 1.6 | 0.00 | 0.00 | 0.00 | 84 | 1010.7 |
| 20260506083535 | 23 | 136 | 0.0 | 1.6 | 0.00 | 0.00 | 0.00 | 84 | 1010.7 |
| 20260506083441 | 23 | 136 | 0.0 | 1.6 | 0.00 | 0.00 | 0.00 | 84 | 1010.7 |
| 20260506083414 | 23 | 136 | 0.0 | 1.6 | 0.00 | 0.00 | 0.00 | 84 | 1010.7 |
| 20260506083238 | 23 | 136 | 0.0 | 3.2 | 0.00 | 0.00 | 0.00 | 84 | 1010.7 |
| 20260506083201 | 23 | 136 | 0.0 | 3.2 | 0.00 | 0.00 | 0.00 | 84 | 1010.7 |
| 20260506083042 | 23 | 136 | 0.0 | 3.2 | 0.00 | 0.00 | 0.00 | 84 | 1010.7 |
| 20260506083008 | 23 | 136 | 0.0 | 3.2 | 0.00 | 0.00 | 0.00 | 84 | 1010.8 |
| 20260506082832 | 23 | 136 | 0.0 | 3.2 | 0.00 | 0.00 | 0.00 | 84 | 1010.8 |
| 20260506082735 | 23 | 136 | 0.0 | 3.2 | 0.00 | 0.00 | 0.00 | 84 | 1010.8 |
| 20260506082700 | 23 | 136 | 0.0 | 3.2 | 0.00 | 0.00 | 0.00 | 84 | 1010.9 |
| 20260506082546 | 23 | 135 | 0.0 | 3.2 | 0.00 | 0.00 | 0.00 | 84 | 1010.9 |
| 20260506082433 | 23 | 134 | 0.0 | 3.2 | 0.00 | 0.00 | 0.00 | 84 | 1010.9 |
| 20260506082339 | 23 | 133 | 0.0 | 3.2 | 0.00 | 0.00 | 0.00 | 84 | 1010.9 |
| 20260506082235 | 23 | 133 | 0.0 | 3.2 | 0.00 | 0.00 | 0.00 | 84 | 1010.9 |
| 20260506082146 | 23 | 133 | 0.0 | 3.2 | 0.00 | 0.00 | 0.00 | 84 | 1010.9 |
| 20260506082041 | 23 | 133 | 0.0 | 3.2 | 0.00 | 0.00 | 0.00 | 84 | 1011.0 |
| 20260506081951 | 23 | 133 | 0.0 | 3.2 | 0.00 | 0.00 | 0.00 | 84 | 1010.9 |
| 20260506081845 | 23 | 133 | 0.0 | 3.2 | 0.00 | 0.00 | 0.00 | 84 | 1010.9 |
| 20260506081741 | 23 | 132 | 1.6 | 3.2 | 0.00 | 0.00 | 0.00 | 84 | 1010.8 |
| 20260506081647 | 23 | 132 | 0.0 | 3.2 | 0.00 | 0.00 | 0.00 | 84 | 1010.9 |
| 20260506081548 | 23 | 132 | 0.0 | 3.2 | 0.00 | 0.00 | 0.00 | 84 | 1010.9 |
| 20260506081438 | 23 | 132 | 0.0 | 3.2 | 0.00 | 0.00 | 0.00 | 84 | 1011.0 |
| 20260506081344 | 23 | 132 | 0.0 | 3.2 | 0.00 | 0.00 | 0.00 | 84 | 1010.9 |
| 20260506081236 | 23 | 132 | 0.0 | 1.6 | 0.00 | 0.00 | 0.00 | 84 | 1010.9 |
| 20260506081151 | 23 | 132 | 0.0 | 1.6 | 0.00 | 0.00 | 0.00 | 84 | 1010.9 |
| 20260506081053 | 23 | 132 | 0.0 | 1.6 | 0.00 | 0.00 | 0.00 | 84 | 1010.9 |
| 20260506080958 | 23 | 132 | 0.0 | 1.6 | 0.00 | 0.00 | 0.00 | 84 | 1011.0 |
| 20260506080847 | 23 | 132 | 0.0 | 1.6 | 0.00 | 0.00 | 0.00 | 84 | 1011.0 |
| 20260506080733 | 23 | 132 | 0.0 | 1.6 | 0.00 | 0.00 | 0.00 | 84 | 1011.0 |
| 20260506080657 | 23 | 132 | 0.0 | 1.6 | 0.00 | 0.00 | 0.00 | 84 | 1011.0 |
| 20260506080532 | 23 | 132 | 0.0 | 1.6 | 0.00 | 0.00 | 0.00 | 84 | 1011.0 |
| 20260506080437 | 23 | 132 | 0.0 | 1.6 | 0.00 | 0.00 | 0.00 | 84 | 1011.0 |
| 20260506080350 | 23 | 131 | 0.0 | 1.6 | 0.00 | 0.00 | 0.00 | 84 | 1011.0 |
| 20260506080231 | 23 | 131 | 0.0 | 4.8 | 0.00 | 0.00 | 0.00 | 84 | 1011.0 |
| 20260506080156 | 23 | 131 | 0.0 | 4.8 | 0.00 | 0.00 | 0.00 | 84 | 1011.0 |
| 20260506073437 | 23 | 182 | 0.0 | 4.8 | 0.00 | 0.00 | 0.00 | 84 | 1011.1 |
| 20260506073343 | 23 | 214 | 0.0 | 4.8 | 0.00 | 0.00 | 0.00 | 84 | 1011.1 |
| 20260506073256 | 23 | 214 | 0.0 | 4.8 | 0.00 | 0.00 | 0.00 | 84 | 1011.1 |
| 20260506073151 | 23 | 223 | 0.0 | 4.8 | 0.00 | 0.00 | 0.00 | 84 | 1011.1 |
| 20260506073053 | 23 | 223 | 0.0 | 4.8 | 0.00 | 0.00 | 0.00 | 84 | 1011.2 |
| 20260506072943 | 23 | 123 | 0.0 | 3.2 | 0.00 | 0.00 | 0.00 | 84 | 1011.2 |
| 20260506072849 | 23 | 123 | 0.0 | 3.2 | 0.00 | 0.00 | 0.00 | 84 | 1011.2 |
| 20260506072736 | 23 | 123 | 0.0 | 3.2 | 0.00 | 0.00 | 0.00 | 84 | 1011.2 |
| 20260506072658 | 23 | 123 | 0.0 | 3.2 | 0.00 | 0.00 | 0.00 | 84 | 1011.2 |
| 20260506072534 | 23 | 123 | 0.0 | 1.6 | 0.00 | 0.00 | 0.00 | 84 | 1011.2 |
| 20260506072443 | 23 | 123 | 0.0 | 1.6 | 0.00 | 0.00 | 0.00 | 84 | 1011.2 |
| 20260506072416 | 23 | 123 | 0.0 | 1.6 | 0.00 | 0.00 | 0.00 | 84 | 1011.1 |
| 20260506072241 | 23 | 123 | 0.0 | 1.6 | 0.00 | 0.00 | 0.00 | 84 | 1011.2 |
| 20260506072205 | 23 | 123 | 0.0 | 1.6 | 0.00 | 0.00 | 0.00 | 84 | 1011.2 |
| 20260506072039 | 23 | 123 | 0.0 | 1.6 | 0.00 | 0.00 | 0.00 | 84 | 1011.2 |
| 20260506071944 | 23 | 123 | 0.0 | 1.6 | 0.00 | 0.00 | 0.00 | 84 | 1011.2 |
| 20260506071856 | 23 | 123 | 0.0 | 1.6 | 0.00 | 0.00 | 0.00 | 84 | 1011.2 |
| 20260506071736 | 23 | 123 | 0.0 | 1.6 | 0.00 | 0.00 | 0.00 | 84 | 1011.2 |
| 20260506071648 | 23 | 123 | 0.0 | 1.6 | 0.00 | 0.00 | 0.00 | 84 | 1011.2 |
| 20260506071544 | 23 | 123 | 0.0 | 1.6 | 0.00 | 0.00 | 0.00 | 84 | 1011.2 |
| 20260506071450 | 23 | 123 | 0.0 | 3.2 | 0.00 | 0.00 | 0.00 | 84 | 1011.1 |
| 20260506071400 | 23 | 123 | 0.0 | 3.2 | 0.00 | 0.00 | 0.00 | 84 | 1011.1 |
| 20260506071235 | 23 | 123 | 0.0 | 3.2 | 0.00 | 0.00 | 0.00 | 84 | 1011.1 |
| 20260506071154 | 23 | 123 | 0.0 | 3.2 | 0.00 | 0.00 | 0.00 | 84 | 1011.1 |
| 20260506071109 | 23 | 123 | 0.0 | 3.2 | 0.00 | 0.00 | 0.00 | 84 | 1011.1 |
| 20260506070933 | 23 | 123 | 0.0 | 3.2 | 0.00 | 0.00 | 0.00 | 84 | 1011.1 |
| 20260506070846 | 23 | 123 | 0.0 | 3.2 | 0.00 | 0.00 | 0.00 | 84 | 1011.1 |
| 20260506070742 | 23 | 123 | 0.0 | 3.2 | 0.00 | 0.00 | 0.00 | 84 | 1011.1 |
| 20260506070716 | 23 | 123 | 0.0 | 3.2 | 0.00 | 0.00 | 0.00 | 84 | 1011.1 |
| 20260506070535 | 23 | 123 | 0.0 | 0.0 | 0.00 | 0.00 | 0.00 | 84 | 1011.1 |
| 20260506070442 | 23 | 123 | 0.0 | 3.2 | 0.00 | 0.00 | 0.00 | 84 | 1011.1 |
| 20260506070355 | 23 | 123 | 0.0 | 3.2 | 0.00 | 0.00 | 0.00 | 84 | 1011.1 |
| 20260506070300 | 23 | 123 | 0.0 | 6.4 | 0.00 | 0.00 | 0.00 | 84 | 1011.1 |
| 20260506070222 | 23 | 123 | 0.0 | 6.4 | 0.00 | 0.00 | 0.00 | 84 | 1011.1 |
| 20260506062453 | 23 | 133 | 1.6 | 6.4 | 0.00 | 0.00 | 0.00 | 83 | 1011.1 |
| 20260506062339 | 23 | 137 | 1.6 | 6.4 | 0.00 | 0.00 | 0.00 | 83 | 1011.0 |
| 20260506062239 | 23 | 138 | 0.0 | 4.8 | 0.00 | 0.00 | 0.00 | 83 | 1011.0 |
| 20260506062151 | 23 | 138 | 1.6 | 4.8 | 0.00 | 0.00 | 0.00 | 83 | 1011.1 |
| 20260506062047 | 23 | 138 | 1.6 | 4.8 | 0.00 | 0.00 | 0.00 | 83 | 1011.1 |
| 20260506061932 | 23 | 138 | 1.6 | 4.8 | 0.00 | 0.00 | 0.00 | 83 | 1011.1 |
| 20260506061837 | 23 | 138 | 1.6 | 4.8 | 0.00 | 0.00 | 0.00 | 83 | 1011.1 |
| 20260506061800 | 23 | 139 | 0.0 | 4.8 | 0.00 | 0.00 | 0.00 | 83 | 1011.2 |
| 20260506061654 | 23 | 139 | 1.6 | 4.8 | 0.00 | 0.00 | 0.00 | 83 | 1011.2 |
| 20260506061548 | 23 | 138 | 1.6 | 4.8 | 0.00 | 0.00 | 0.00 | 83 | 1011.2 |
| 20260506061453 | 23 | 138 | 1.6 | 4.8 | 0.00 | 0.00 | 0.00 | 83 | 1011.2 |
| 20260506061345 | 23 | 138 | 1.6 | 4.8 | 0.00 | 0.00 | 0.00 | 83 | 1011.3 |
| 20260506061241 | 23 | 140 | 1.6 | 4.8 | 0.00 | 0.00 | 0.00 | 83 | 1011.3 |
| 20260506061154 | 23 | 139 | 1.6 | 4.8 | 0.00 | 0.00 | 0.00 | 83 | 1011.4 |
| 20260506061033 | 23 | 136 | 1.6 | 4.8 | 0.00 | 0.00 | 0.00 | 83 | 1011.4 |
| 20260506060938 | 23 | 134 | 0.0 | 4.8 | 0.00 | 0.00 | 0.00 | 83 | 1011.4 |
| 20260506060845 | 23 | 148 | 0.0 | 1.6 | 0.00 | 0.00 | 0.00 | 83 | 1011.4 |
| 20260506060731 | 23 | 148 | 0.0 | 1.6 | 0.00 | 0.00 | 0.00 | 83 | 1011.4 |
| 20260506060655 | 23 | 148 | 0.0 | 3.2 | 0.00 | 0.00 | 0.00 | 83 | 1011.4 |
| 20260506060534 | 23 | 148 | 0.0 | 3.2 | 0.00 | 0.00 | 0.00 | 83 | 1011.4 |
| 20260506060439 | 23 | 147 | 0.0 | 3.2 | 0.00 | 0.00 | 0.00 | 83 | 1011.4 |
| 20260506060352 | 23 | 145 | 0.0 | 3.2 | 0.00 | 0.00 | 0.00 | 83 | 1011.4 |
| 20260506060238 | 23 | 145 | 0.0 | 3.2 | 0.00 | 0.00 | 0.00 | 83 | 1011.4 |
| 20260506060200 | 23 | 145 | 0.0 | 3.2 | 0.00 | 0.00 | 0.00 | 83 | 1011.4 |
| 20260506051339 | 23 | 136 | 0.0 | 0.0 | 0.00 | 0.00 | 0.00 | 81 | 1011.6 |
| 20260506051236 | 23 | 136 | 0.0 | 0.0 | 0.00 | 0.00 | 0.00 | 81 | 1011.5 |
| 20260506051147 | 23 | 136 | 0.0 | 0.0 | 0.00 | 0.00 | 0.00 | 81 | 1011.5 |
| 20260506051041 | 23 | 136 | 0.0 | 0.0 | 0.00 | 0.00 | 0.00 | 81 | 1011.5 |
| 20260506050955 | 23 | 136 | 0.0 | 0.0 | 0.00 | 0.00 | 0.00 | 81 | 1011.5 |
| 20260506050841 | 23 | 136 | 0.0 | 0.0 | 0.00 | 0.00 | 0.00 | 81 | 1011.5 |
| 20260506050740 | 23 | 136 | 0.0 | 0.0 | 0.00 | 0.00 | 0.00 | 81 | 1011.5 |
| 20260506050655 | 23 | 136 | 0.0 | 0.0 | 0.00 | 0.00 | 0.00 | 81 | 1011.5 |
| 20260506050609 | 23 | 136 | 0.0 | 0.0 | 0.00 | 0.00 | 0.00 | 81 | 1011.5 |
| 20260506050439 | 23 | 136 | 0.0 | 0.0 | 0.00 | 0.00 | 0.00 | 81 | 1011.5 |
| 20260506050345 | 23 | 136 | 0.0 | 0.0 | 0.00 | 0.00 | 0.00 | 81 | 1011.5 |
| 20260506050230 | 23 | 136 | 0.0 | 0.0 | 0.00 | 0.00 | 0.00 | 81 | 1011.5 |
| 20260506050158 | 23 | 136 | 0.0 | 0.0 | 0.00 | 0.00 | 0.00 | 81 | 1011.5 |
| 20260506045051 | 23 | 136 | 0.0 | 6.4 | 0.00 | 0.00 | 0.00 | 81 | 1011.5 |
| 20260506044941 | 23 | 136 | 0.0 | 6.4 | 0.00 | 0.00 | 0.00 | 81 | 1011.5 |
| 20260506044832 | 23 | 136 | 0.0 | 6.4 | 0.00 | 0.00 | 0.00 | 81 | 1011.4 |
| 20260506044737 | 23 | 136 | 1.6 | 6.4 | 0.00 | 0.00 | 0.00 | 81 | 1011.5 |
| 20260506044702 | 23 | 136 | 0.0 | 6.4 | 0.00 | 0.00 | 0.00 | 81 | 1011.5 |
| 20260506044538 | 23 | 136 | 0.0 | 6.4 | 0.00 | 0.00 | 0.00 | 81 | 1011.5 |
| 20260506044444 | 23 | 136 | 0.0 | 6.4 | 0.00 | 0.00 | 0.00 | 81 | 1011.4 |
| 20260506044333 | 23 | 136 | 1.6 | 6.4 | 0.00 | 0.00 | 0.00 | 80 | 1011.4 |
| 20260506044306 | 23 | 136 | 1.6 | 6.4 | 0.00 | 0.00 | 0.00 | 80 | 1011.5 |
| 20260506043732 | 23 | 143 | 1.6 | 4.8 | 0.00 | 0.00 | 0.00 | 80 | 1011.4 |
| 20260506043643 | 23 | 143 | 1.6 | 4.8 | 0.00 | 0.00 | 0.00 | 80 | 1011.3 |
| 20260506043537 | 23 | 142 | 1.6 | 4.8 | 0.00 | 0.00 | 0.00 | 80 | 1011.3 |
| 20260506043450 | 23 | 143 | 1.6 | 6.4 | 0.00 | 0.00 | 0.00 | 80 | 1011.3 |
| 20260506043340 | 23 | 142 | 0.0 | 8.0 | 0.00 | 0.00 | 0.00 | 80 | 1011.3 |
| 20260506043237 | 23 | 142 | 0.0 | 8.0 | 0.00 | 0.00 | 0.00 | 80 | 1011.4 |
| 20260506043146 | 23 | 142 | 0.0 | 8.0 | 0.00 | 0.00 | 0.00 | 80 | 1011.4 |
| 20260506043108 | 23 | 141 | 1.6 | 8.0 | 0.00 | 0.00 | 0.00 | 80 | 1011.3 |
| 20260506042953 | 23 | 141 | 1.6 | 8.0 | 0.00 | 0.00 | 0.00 | 80 | 1011.3 |
| 20260506042839 | 23 | 141 | 0.0 | 8.0 | 0.00 | 0.00 | 0.00 | 80 | 1011.3 |
| 20260506042739 | 23 | 140 | 0.0 | 8.0 | 0.00 | 0.00 | 0.00 | 80 | 1011.3 |
| 20260506042650 | 23 | 140 | 1.6 | 8.0 | 0.00 | 0.00 | 0.00 | 80 | 1011.3 |
| 20260506042545 | 23 | 140 | 3.2 | 8.0 | 0.00 | 0.00 | 0.00 | 79 | 1011.3 |
| 20260506042440 | 23 | 142 | 1.6 | 8.0 | 0.00 | 0.00 | 0.00 | 79 | 1011.3 |
| 20260506042345 | 23 | 141 | 0.0 | 3.2 | 0.00 | 0.00 | 0.00 | 79 | 1011.4 |
| 20260506042240 | 23 | 141 | 0.0 | 3.2 | 0.00 | 0.00 | 0.00 | 79 | 1011.3 |
| 20260506042157 | 23 | 141 | 0.0 | 3.2 | 0.00 | 0.00 | 0.00 | 79 | 1011.3 |
| 20260506042031 | 23 | 141 | 0.0 | 3.2 | 0.00 | 0.00 | 0.00 | 79 | 1011.4 |
| 20260506041959 | 23 | 141 | 0.0 | 3.2 | 0.00 | 0.00 | 0.00 | 79 | 1011.4 |
| 20260506041832 | 23 | 141 | 0.0 | 4.8 | 0.00 | 0.00 | 0.00 | 79 | 1011.4 |
| 20260506041758 | 23 | 141 | 1.6 | 4.8 | 0.00 | 0.00 | 0.00 | 79 | 1011.4 |
| 20260506041700 | 23 | 141 | 1.6 | 4.8 | 0.00 | 0.00 | 0.00 | 79 | 1011.3 |
| 20260506041537 | 23 | 141 | 0.0 | 4.8 | 0.00 | 0.00 | 0.00 | 79 | 1011.3 |
| 20260506041512 | 23 | 140 | 0.0 | 4.8 | 0.00 | 0.00 | 0.00 | 79 | 1011.3 |
| 20260506041338 | 23 | 139 | 0.0 | 4.8 | 0.00 | 0.00 | 0.00 | 79 | 1011.3 |
| 20260506041234 | 23 | 139 | 0.0 | 4.8 | 0.00 | 0.00 | 0.00 | 79 | 1011.4 |
| 20260506041145 | 23 | 139 | 1.6 | 4.8 | 0.00 | 0.00 | 0.00 | 79 | 1011.3 |
| 20260506041041 | 23 | 139 | 1.6 | 4.8 | 0.00 | 0.00 | 0.00 | 79 | 1011.4 |
| 20260506040958 | 23 | 139 | 1.6 | 4.8 | 0.00 | 0.00 | 0.00 | 79 | 1011.4 |
| 20260506040905 | 23 | 136 | 1.6 | 4.8 | 0.00 | 0.00 | 0.00 | 79 | 1011.4 |
| 20260506040741 | 23 | 135 | 0.0 | 3.2 | 0.00 | 0.00 | 0.00 | 79 | 1011.4 |
| 20260506040712 | 23 | 138 | 0.0 | 3.2 | 0.00 | 0.00 | 0.00 | 79 | 1011.4 |
| 20260506040555 | 23 | 138 | 0.0 | 3.2 | 0.00 | 0.00 | 0.00 | 79 | 1011.4 |
| 20260506040432 | 23 | 138 | 0.0 | 3.2 | 0.00 | 0.00 | 0.00 | 79 | 1011.3 |
| 20260506040349 | 23 | 138 | 0.0 | 3.2 | 0.00 | 0.00 | 0.00 | 79 | 1011.3 |
| 20260506040234 | 23 | 138 | 0.0 | 4.8 | 0.00 | 0.00 | 0.00 | 79 | 1011.3 |
| 20260506040200 | 23 | 138 | 0.0 | 4.8 | 0.00 | 0.00 | 0.00 | 79 | 1011.3 |
| 20260506040035 | 23 | 138 | 0.0 | 4.8 | 0.00 | 0.00 | 0.00 | 79 | 1011.2 |
| 20260506035941 | 23 | 137 | 1.6 | 4.8 | 0.00 | 0.00 | 0.00 | 79 | 1011.3 |
| 20260506035831 | 23 | 137 | 1.6 | 4.8 | 0.00 | 0.00 | 0.00 | 79 | 1011.2 |
| 20260506035737 | 23 | 137 | 0.0 | 4.8 | 0.00 | 0.00 | 0.00 | 79 | 1011.3 |
| 20260506035720 | 23 | 137 | 0.0 | 4.8 | 0.00 | 0.00 | 0.00 | 79 | 1011.3 |
| 20260506035533 | 23 | 137 | 1.6 | 4.8 | 0.00 | 0.00 | 0.00 | 79 | 1011.2 |
| 20260506035446 | 23 | 137 | 1.6 | 4.8 | 0.00 | 0.00 | 0.00 | 79 | 1011.2 |
| 20260506035332 | 23 | 133 | 0.0 | 4.8 | 0.00 | 0.00 | 0.00 | 79 | 1011.2 |
| 20260506035231 | 23 | 133 | 0.0 | 4.8 | 0.00 | 0.00 | 0.00 | 78 | 1011.2 |
| 20260506035203 | 23 | 133 | 1.6 | 4.8 | 0.00 | 0.00 | 0.00 | 78 | 1011.1 |
| 20260506035036 | 23 | 129 | 1.6 | 4.8 | 0.00 | 0.00 | 0.00 | 78 | 1011.2 |
| 20260506035009 | 23 | 128 | 1.6 | 4.8 | 0.00 | 0.00 | 0.00 | 78 | 1011.2 |
| 20260506034835 | 23 | 126 | 1.6 | 4.8 | 0.00 | 0.00 | 0.00 | 78 | 1011.2 |
| 20260506034732 | 23 | 149 | 1.6 | 4.8 | 0.00 | 0.00 | 0.00 | 78 | 1011.2 |
| 20260506034648 | 23 | 149 | 1.6 | 4.8 | 0.00 | 0.00 | 0.00 | 78 | 1011.2 |
| 20260506034543 | 23 | 149 | 0.0 | 8.0 | 0.00 | 0.00 | 0.00 | 78 | 1011.2 |
| 20260506034449 | 23 | 149 | 0.0 | 8.0 | 0.00 | 0.00 | 0.00 | 78 | 1011.2 |
| 20260506034334 | 23 | 149 | 0.0 | 8.0 | 0.00 | 0.00 | 0.00 | 78 | 1011.2 |
| 20260506034247 | 23 | 149 | 1.6 | 8.0 | 0.00 | 0.00 | 0.00 | 78 | 1011.2 |
| 20260506034231 | 23 | 149 | 1.6 | 8.0 | 0.00 | 0.00 | 0.00 | 78 | 1011.2 |
| 20260506034104 | 23 | 149 | 1.6 | 8.0 | 0.00 | 0.00 | 0.00 | 78 | 1011.1 |
| 20260506033933 | 23 | 150 | 0.0 | 8.0 | 0.00 | 0.00 | 0.00 | 78 | 1011.1 |
| 20260506033906 | 23 | 150 | 1.6 | 8.0 | 0.00 | 0.00 | 0.00 | 78 | 1011.1 |
| 20260506033741 | 23 | 152 | 1.6 | 8.0 | 0.00 | 0.00 | 0.00 | 78 | 1011.1 |
| 20260506033655 | 23 | 152 | 1.6 | 8.0 | 0.00 | 0.00 | 0.00 | 78 | 1011.1 |
| 20260506033549 | 23 | 148 | 1.6 | 4.8 | 0.00 | 0.00 | 0.00 | 78 | 1011.2 |
| 20260506033439 | 23 | 148 | 1.6 | 4.8 | 0.00 | 0.00 | 0.00 | 78 | 1011.1 |
| 20260506033345 | 23 | 148 | 1.6 | 4.8 | 0.00 | 0.00 | 0.00 | 78 | 1011.1 |
| 20260506033231 | 23 | 149 | 0.0 | 4.8 | 0.00 | 0.00 | 0.00 | 78 | 1011.1 |
| 20260506033156 | 23 | 147 | 0.0 | 4.8 | 0.00 | 0.00 | 0.00 | 78 | 1011.1 |
| 20260506033051 | 23 | 147 | 0.0 | 4.8 | 0.00 | 0.00 | 0.00 | 78 | 1011.0 |
| 20260506032937 | 23 | 146 | 1.6 | 4.8 | 0.00 | 0.00 | 0.00 | 78 | 1011.1 |
| 20260506032853 | 23 | 146 | 1.6 | 4.8 | 0.00 | 0.00 | 0.00 | 78 | 1011.1 |
| 20260506032738 | 23 | 146 | 1.6 | 6.4 | 0.00 | 0.00 | 0.00 | 78 | 1011.1 |
| 20260506032701 | 23 | 145 | 1.6 | 6.4 | 0.00 | 0.00 | 0.00 | 78 | 1011.0 |
| 20260506032535 | 23 | 146 | 1.6 | 6.4 | 0.00 | 0.00 | 0.00 | 78 | 1011.0 |
| 20260506032447 | 23 | 119 | 1.6 | 6.4 | 0.00 | 0.00 | 0.00 | 78 | 1011.0 |
| 20260506032334 | 23 | 119 | 1.6 | 6.4 | 0.00 | 0.00 | 0.00 | 78 | 1011.0 |
| 20260506032233 | 23 | 117 | 1.6 | 6.4 | 0.00 | 0.00 | 0.00 | 78 | 1011.0 |
| 20260506032205 | 23 | 117 | 1.6 | 6.4 | 0.00 | 0.00 | 0.00 | 78 | 1010.9 |
| 20260506032040 | 23 | 117 | 0.0 | 6.4 | 0.00 | 0.00 | 0.00 | 78 | 1010.9 |
| 20260506031946 | 23 | 116 | 1.6 | 6.4 | 0.00 | 0.00 | 0.00 | 78 | 1010.9 |
| 20260506031833 | 23 | 116 | 1.6 | 8.0 | 0.00 | 0.00 | 0.00 | 78 | 1010.9 |
| 20260506031734 | 23 | 159 | 1.6 | 8.0 | 0.00 | 0.00 | 0.00 | 78 | 1010.9 |
| 20260506031645 | 23 | 158 | 0.0 | 8.0 | 0.00 | 0.00 | 0.00 | 78 | 1010.8 |
| 20260506031607 | 23 | 160 | 1.6 | 8.0 | 0.00 | 0.00 | 0.00 | 78 | 1010.9 |
| 20260506031432 | 23 | 162 | 1.6 | 8.0 | 0.00 | 0.00 | 0.00 | 78 | 1010.9 |
| 20260506031338 | 23 | 163 | 0.0 | 6.4 | 0.00 | 0.00 | 0.00 | 78 | 1010.9 |
| 20260506031234 | 24 | 163 | 1.6 | 11.3 | 0.00 | 0.00 | 0.00 | 78 | 1010.9 |
| 20260506031150 | 23 | 163 | 1.6 | 11.3 | 0.00 | 0.00 | 0.00 | 78 | 1010.9 |
| 20260506031044 | 24 | 132 | 0.0 | 11.3 | 0.00 | 0.00 | 0.00 | 78 | 1010.9 |
| 20260506030957 | 24 | 132 | 1.6 | 11.3 | 0.00 | 0.00 | 0.00 | 78 | 1010.9 |
| 20260506030844 | 24 | 132 | 3.2 | 11.3 | 0.00 | 0.00 | 0.00 | 78 | 1010.8 |
| 20260506030740 | 24 | 132 | 1.6 | 11.3 | 0.00 | 0.00 | 0.00 | 78 | 1010.8 |
| 20260506030652 | 24 | 132 | 3.2 | 11.3 | 0.00 | 0.00 | 0.00 | 78 | 1010.9 |
| 20260506030532 | 24 | 132 | 3.2 | 11.3 | 0.00 | 0.00 | 0.00 | 78 | 1010.8 |
| 20260506030439 | 24 | 130 | 1.6 | 11.3 | 0.00 | 0.00 | 0.00 | 78 | 1010.8 |
| 20260506030345 | 24 | 130 | 1.6 | 6.4 | 0.00 | 0.00 | 0.00 | 78 | 1010.8 |
| 20260506030241 | 24 | 130 | 1.6 | 6.4 | 0.00 | 0.00 | 0.00 | 78 | 1010.8 |
| 20260506030155 | 24 | 130 | 0.0 | 6.4 | 0.00 | 0.00 | 0.00 | 78 | 1010.7 |
| 20260506030034 | 24 | 130 | 0.0 | 6.4 | 0.00 | 0.00 | 0.00 | 78 | 1010.7 |
| 20260506025947 | 24 | 130 | 0.0 | 6.4 | 0.00 | 0.00 | 0.00 | 77 | 1010.7 |
| 20260506025833 | 24 | 129 | 1.6 | 6.4 | 0.00 | 0.00 | 0.00 | 77 | 1010.7 |
| 20260506025731 | 24 | 129 | 1.6 | 6.4 | 0.00 | 0.00 | 0.00 | 77 | 1010.7 |
| 20260506025704 | 24 | 129 | 1.6 | 6.4 | 0.00 | 0.00 | 0.00 | 77 | 1010.6 |
| 20260506025543 | 24 | 128 | 1.6 | 4.8 | 0.00 | 0.00 | 0.00 | 77 | 1010.6 |
| 20260506025450 | 24 | 123 | 1.6 | 4.8 | 0.00 | 0.00 | 0.00 | 77 | 1010.6 |
| 20260506025359 | 24 | 124 | 0.0 | 3.2 | 0.00 | 0.00 | 0.00 | 77 | 1010.6 |
| 20260506025305 | 24 | 124 | 0.0 | 3.2 | 0.00 | 0.00 | 0.00 | 77 | 1010.6 |
| 20260506025213 | 24 | 124 | 1.6 | 4.8 | 0.00 | 0.00 | 0.00 | 77 | 1010.6 |
| 20260506025047 | 24 | 124 | 0.0 | 4.8 | 0.00 | 0.00 | 0.00 | 77 | 1010.5 |
| 20260506024934 | 24 | 124 | 0.0 | 4.8 | 0.00 | 0.00 | 0.00 | 77 | 1010.5 |
| 20260506024852 | 24 | 124 | 0.0 | 4.8 | 0.00 | 0.00 | 0.00 | 77 | 1010.5 |
| 20260506024730 | 24 | 124 | 0.0 | 4.8 | 0.00 | 0.00 | 0.00 | 77 | 1010.5 |
| 20260506024642 | 24 | 124 | 0.0 | 4.8 | 0.00 | 0.00 | 0.00 | 77 | 1010.5 |
| 20260506024537 | 24 | 124 | 0.0 | 4.8 | 0.00 | 0.00 | 0.00 | 77 | 1010.5 |
| 20260506024443 | 24 | 124 | 1.6 | 8.0 | 0.00 | 0.00 | 0.00 | 77 | 1010.5 |
| 20260506024356 | 24 | 124 | 1.6 | 8.0 | 0.00 | 0.00 | 0.00 | 77 | 1010.5 |
| 20260506024236 | 24 | 124 | 3.2 | 8.0 | 0.00 | 0.00 | 0.00 | 77 | 1010.5 |
| 20260506024208 | 24 | 124 | 1.6 | 8.0 | 0.00 | 0.00 | 0.00 | 77 | 1010.5 |
| 20260506024044 | 24 | 123 | 0.0 | 8.0 | 0.00 | 0.00 | 0.00 | 77 | 1010.6 |
| 20260506024009 | 24 | 122 | 0.0 | 8.0 | 0.00 | 0.00 | 0.00 | 77 | 1010.5 |
| 20260506023834 | 24 | 122 | 1.6 | 8.0 | 0.00 | 0.00 | 0.00 | 77 | 1010.5 |
| 20260506023735 | 24 | 121 | 1.6 | 8.0 | 0.00 | 0.00 | 0.00 | 77 | 1010.5 |
| 20260506023646 | 24 | 121 | 1.6 | 8.0 | 0.00 | 0.00 | 0.00 | 77 | 1010.5 |
| 20260506023609 | 24 | 148 | 1.6 | 8.0 | 0.00 | 0.00 | 0.00 | 77 | 1010.5 |
| 20260506023437 | 24 | 148 | 1.6 | 6.4 | 0.00 | 0.00 | 0.00 | 77 | 1010.6 |
| 20260506023344 | 24 | 148 | 1.6 | 4.8 | 0.00 | 0.00 | 0.00 | 77 | 1010.5 |
| 20260506023256 | 24 | 148 | 1.6 | 4.8 | 0.00 | 0.00 | 0.00 | 76 | 1010.5 |
| 20260506023154 | 24 | 148 | 1.6 | 4.8 | 0.00 | 0.00 | 0.00 | 76 | 1010.5 |
| 20260506023032 | 25 | 148 | 1.6 | 4.8 | 0.00 | 0.00 | 0.00 | 76 | 1010.5 |
| 20260506022944 | 25 | 148 | 1.6 | 4.8 | 0.00 | 0.00 | 0.00 | 76 | 1010.5 |
| 20260506022831 | 25 | 148 | 0.0 | 4.8 | 0.00 | 0.00 | 0.00 | 76 | 1010.6 |
| 20260506022736 | 25 | 149 | 1.6 | 4.8 | 0.00 | 0.00 | 0.00 | 76 | 1010.5 |
| 20260506022701 | 25 | 148 | 1.6 | 4.8 | 0.00 | 0.00 | 0.00 | 76 | 1010.6 |
| 20260506022540 | 25 | 148 | 1.6 | 4.8 | 0.00 | 0.00 | 0.00 | 76 | 1010.6 |
| 20260506022446 | 25 | 148 | 0.0 | 3.2 | 0.00 | 0.00 | 0.00 | 76 | 1010.6 |
| 20260506022358 | 25 | 147 | 1.6 | 4.8 | 0.00 | 0.00 | 0.00 | 76 | 1010.7 |
| 20260506022232 | 25 | 147 | 1.6 | 4.8 | 0.00 | 0.00 | 0.00 | 76 | 1010.7 |
| 20260506022204 | 25 | 146 | 1.6 | 4.8 | 0.00 | 0.00 | 0.00 | 76 | 1010.6 |
| 20260506022040 | 25 | 147 | 0.0 | 4.8 | 0.00 | 0.00 | 0.00 | 76 | 1010.6 |
| 20260506022009 | 25 | 147 | 0.0 | 4.8 | 0.00 | 0.00 | 0.00 | 76 | 1010.6 |
| 20260506021902 | 25 | 147 | 0.0 | 6.4 | 0.00 | 0.00 | 0.00 | 76 | 1010.6 |
| 20260506021736 | 25 | 147 | 1.6 | 6.4 | 0.00 | 0.00 | 0.00 | 76 | 1010.6 |
| 20260506021708 | 25 | 147 | 1.6 | 6.4 | 0.00 | 0.00 | 0.00 | 76 | 1010.7 |
| 20260506021543 | 25 | 146 | 1.6 | 6.4 | 0.00 | 0.00 | 0.00 | 76 | 1010.7 |
| 20260506021449 | 25 | 146 | 1.6 | 6.4 | 0.00 | 0.00 | 0.00 | 76 | 1010.7 |
| 20260506021340 | 25 | 146 | 1.6 | 6.4 | 0.00 | 0.00 | 0.00 | 75 | 1010.7 |
| 20260506021236 | 25 | 146 | 0.0 | 8.0 | 0.00 | 0.00 | 0.00 | 75 | 1010.7 |
| 20260506021146 | 25 | 146 | 1.6 | 8.0 | 0.00 | 0.00 | 0.00 | 75 | 1010.7 |
| 20260506021046 | 25 | 146 | 1.6 | 8.0 | 0.00 | 0.00 | 0.00 | 75 | 1010.7 |
| 20260506020932 | 25 | 146 | 1.6 | 8.0 | 0.00 | 0.00 | 0.00 | 75 | 1010.7 |
| 20260506020900 | 25 | 148 | 0.0 | 8.0 | 0.00 | 0.00 | 0.00 | 75 | 1010.7 |
| 20260506020756 | 25 | 148 | 0.0 | 8.0 | 0.00 | 0.00 | 0.00 | 75 | 1010.6 |
| 20260506020652 | 25 | 148 | 0.0 | 8.0 | 0.00 | 0.00 | 0.00 | 75 | 1010.6 |
| 20260506020535 | 25 | 145 | 0.0 | 8.0 | 0.00 | 0.00 | 0.00 | 75 | 1010.7 |
| 20260506020441 | 25 | 145 | 1.6 | 8.0 | 0.00 | 0.00 | 0.00 | 75 | 1010.6 |
| 20260506020348 | 25 | 145 | 1.6 | 8.0 | 0.00 | 0.00 | 0.00 | 75 | 1010.6 |
| 20260506020234 | 25 | 150 | 0.0 | 4.8 | 0.00 | 0.00 | 0.00 | 75 | 1010.6 |
| 20260506020201 | 25 | 150 | 0.0 | 4.8 | 0.00 | 0.00 | 0.00 | 75 | 1010.6 |
| 20260506020035 | 25 | 150 | 1.6 | 4.8 | 0.00 | 0.00 | 0.00 | 75 | 1010.6 |
| 20260506015941 | 25 | 151 | 0.0 | 4.8 | 0.00 | 0.00 | 0.00 | 75 | 1010.6 |
| 20260506015853 | 25 | 151 | 0.0 | 8.0 | 0.00 | 0.00 | 0.00 | 75 | 1010.6 |
| 20260506015800 | 25 | 151 | 0.0 | 8.0 | 0.00 | 0.00 | 0.00 | 75 | 1010.6 |
| 20260506015645 | 25 | 151 | 0.0 | 8.0 | 0.00 | 0.00 | 0.00 | 75 | 1010.5 |
| 20260506015540 | 25 | 151 | 1.6 | 8.0 | 0.00 | 0.00 | 0.00 | 75 | 1010.5 |
| 20260506015446 | 25 | 151 | 1.6 | 8.0 | 0.00 | 0.00 | 0.00 | 75 | 1010.5 |
| 20260506015333 | 25 | 151 | 1.6 | 8.0 | 0.00 | 0.00 | 0.00 | 75 | 1010.5 |
| 20260506015246 | 25 | 129 | 1.6 | 8.0 | 0.00 | 0.00 | 0.00 | 75 | 1010.5 |
| 20260506015230 | 25 | 129 | 1.6 | 8.0 | 0.00 | 0.00 | 0.00 | 75 | 1010.5 |
| 20260506015103 | 25 | 139 | 1.6 | 8.0 | 0.00 | 0.00 | 0.00 | 75 | 1010.5 |
| 20260506014952 | 25 | 136 | 1.6 | 8.0 | 0.00 | 0.00 | 0.00 | 74 | 1010.5 |
| 20260506014844 | 25 | 136 | 0.0 | 8.0 | 0.00 | 0.00 | 0.00 | 74 | 1010.5 |
| 20260506014732 | 25 | 132 | 1.6 | 8.0 | 0.00 | 0.00 | 0.00 | 74 | 1010.5 |
| 20260506014647 | 25 | 132 | 1.6 | 8.0 | 0.00 | 0.00 | 0.00 | 74 | 1010.4 |
| 20260506014609 | 25 | 132 | 3.2 | 8.0 | 0.00 | 0.00 | 0.00 | 74 | 1010.5 |
| 20260506014434 | 25 | 123 | 3.2 | 11.3 | 0.00 | 0.00 | 0.00 | 74 | 1010.5 |
| 20260506014345 | 25 | 121 | 3.2 | 11.3 | 0.00 | 0.00 | 0.00 | 74 | 1010.5 |
| 20260506014231 | 25 | 181 | 3.2 | 11.3 | 0.00 | 0.00 | 0.00 | 74 | 1010.5 |
| 20260506014154 | 25 | 116 | 1.6 | 11.3 | 0.00 | 0.00 | 0.00 | 74 | 1010.5 |
| 20260506014049 | 25 | 136 | 3.2 | 11.3 | 0.00 | 0.00 | 0.00 | 74 | 1010.5 |
| 20260506013935 | 25 | 138 | 1.6 | 11.3 | 0.00 | 0.00 | 0.00 | 74 | 1010.5 |
| 20260506013854 | 25 | 130 | 1.6 | 11.3 | 0.00 | 0.00 | 0.00 | 74 | 1010.5 |
| 20260506013801 | 25 | 128 | 3.2 | 11.3 | 0.00 | 0.00 | 0.00 | 74 | 1010.5 |
| 20260506013723 | 25 | 128 | 3.2 | 11.3 | 0.00 | 0.00 | 0.00 | 74 | 1010.4 |
| 20260506013606 | 25 | 117 | 1.6 | 11.3 | 0.00 | 0.00 | 0.00 | 74 | 1010.4 |
| 20260506013450 | 25 | 99 | 1.6 | 9.7 | 0.00 | 0.00 | 0.00 | 74 | 1010.4 |
| 20260506013338 | 25 | 150 | 1.6 | 9.7 | 0.00 | 0.00 | 0.00 | 74 | 1010.3 |
| 20260506013256 | 25 | 168 | 0.0 | 8.0 | 0.00 | 0.00 | 0.00 | 74 | 1010.3 |
| 20260506013152 | 25 | 168 | 0.0 | 8.0 | 0.00 | 0.00 | 0.00 | 74 | 1010.3 |
| 20260506013055 | 25 | 168 | 0.0 | 8.0 | 0.00 | 0.00 | 0.00 | 74 | 1010.3 |
| 20260506012941 | 25 | 168 | 1.6 | 11.3 | 0.00 | 0.00 | 0.00 | 74 | 1010.3 |
| 20260506012848 | 25 | 168 | 1.6 | 11.3 | 0.00 | 0.00 | 0.00 | 73 | 1010.3 |
| 20260506012733 | 25 | 167 | 1.6 | 11.3 | 0.00 | 0.00 | 0.00 | 73 | 1010.3 |
| 20260506012701 | 25 | 272 | 1.6 | 11.3 | 0.00 | 0.00 | 0.00 | 73 | 1010.2 |
| 20260506012536 | 25 | 159 | 3.2 | 11.3 | 0.00 | 0.00 | 0.00 | 73 | 1010.2 |
| 20260506012442 | 25 | 159 | 3.2 | 11.3 | 0.00 | 0.00 | 0.00 | 73 | 1010.1 |
| 20260506012416 | 25 | 128 | 1.6 | 11.3 | 0.00 | 0.00 | 0.00 | 73 | 1010.1 |
| 20260506012239 | 25 | 127 | 1.6 | 11.3 | 0.00 | 0.00 | 0.00 | 73 | 1010.1 |
| 20260506012224 | 25 | 127 | 1.6 | 11.3 | 0.00 | 0.00 | 0.00 | 73 | 1010.1 |
| 20260506012041 | 25 | 149 | 1.6 | 8.0 | 0.00 | 0.00 | 0.00 | 73 | 1010.1 |
| 20260506011948 | 25 | 149 | 3.2 | 8.0 | 0.00 | 0.00 | 0.00 | 73 | 1010.0 |
| 20260506011835 | 25 | 180 | 1.6 | 9.7 | 0.00 | 0.00 | 0.00 | 73 | 1010.0 |
| 20260506011730 | 25 | 155 | 1.6 | 9.7 | 0.00 | 0.00 | 0.00 | 73 | 1010.0 |
| 20260506011642 | 25 | 151 | 1.6 | 9.7 | 0.00 | 0.00 | 0.00 | 73 | 1010.0 |
| 20260506011536 | 25 | 153 | 1.6 | 9.7 | 0.00 | 0.00 | 0.00 | 73 | 1010.0 |
| 20260506011453 | 25 | 151 | 1.6 | 9.7 | 0.00 | 0.00 | 0.00 | 73 | 1010.1 |
| 20260506011339 | 25 | 150 | 3.2 | 9.7 | 0.00 | 0.00 | 0.00 | 73 | 1010.1 |
| 20260506011236 | 25 | 159 | 1.6 | 8.0 | 0.00 | 0.00 | 0.00 | 73 | 1010.1 |
| 20260506011208 | 25 | 159 | 1.6 | 8.0 | 0.00 | 0.00 | 0.00 | 73 | 1010.1 |
| 20260506011043 | 25 | 155 | 1.6 | 8.0 | 0.00 | 0.00 | 0.00 | 73 | 1010.1 |
| 20260506010955 | 25 | 155 | 1.6 | 8.0 | 0.00 | 0.00 | 0.00 | 73 | 1010.1 |
| 20260506010846 | 25 | 156 | 3.2 | 8.0 | 0.00 | 0.00 | 0.00 | 72 | 1010.1 |
| 20260506010752 | 25 | 157 | 3.2 | 8.0 | 0.00 | 0.00 | 0.00 | 72 | 1010.0 |
| 20260506010654 | 25 | 163 | 3.2 | 8.0 | 0.00 | 0.00 | 0.00 | 72 | 1010.0 |
| 20260506010609 | 26 | 165 | 1.6 | 8.0 | 0.00 | 0.00 | 0.00 | 72 | 1009.9 |
| 20260506010432 | 25 | 167 | 3.2 | 11.3 | 0.00 | 0.00 | 0.00 | 72 | 1010.0 |
| 20260506010406 | 26 | 167 | 3.2 | 11.3 | 0.00 | 0.00 | 0.00 | 72 | 1010.0 |
| 20260506010235 | 26 | 171 | 3.2 | 11.3 | 0.00 | 0.00 | 0.00 | 72 | 1009.9 |
| 20260506010220 | 26 | 171 | 4.8 | 11.3 | 0.00 | 0.00 | 0.00 | 72 | 1010.0 |
| 20260506010034 | 26 | 128 | 3.2 | 11.3 | 0.00 | 0.00 | 0.00 | 72 | 1010.0 |
| 20260506005940 | 26 | 156 | 3.2 | 11.3 | 0.00 | 0.00 | 0.00 | 72 | 1009.9 |
| 20260506005853 | 26 | 155 | 1.6 | 11.3 | 0.00 | 0.00 | 0.00 | 72 | 1009.9 |
| 20260506005738 | 26 | 134 | 3.2 | 11.3 | 0.00 | 0.00 | 0.00 | 72 | 1009.9 |
| 20260506005705 | 26 | 133 | 3.2 | 11.3 | 0.00 | 0.00 | 0.00 | 71 | 1009.9 |
| 20260506005540 | 26 | 133 | 1.6 | 8.0 | 0.00 | 0.00 | 0.00 | 71 | 1009.9 |
| 20260506005445 | 26 | 130 | 3.2 | 6.4 | 0.00 | 0.00 | 0.00 | 71 | 1009.8 |
| 20260506005331 | 26 | 130 | 1.6 | 6.4 | 0.00 | 0.00 | 0.00 | 71 | 1009.8 |
| 20260506005243 | 26 | 148 | 1.6 | 4.8 | 0.00 | 0.00 | 0.00 | 71 | 1009.8 |
| 20260506005200 | 26 | 148 | 1.6 | 4.8 | 0.00 | 0.00 | 0.00 | 71 | 1009.9 |
| 20260506005038 | 26 | 148 | 1.6 | 6.4 | 0.00 | 0.00 | 0.00 | 71 | 1009.9 |
| 20260506004949 | 26 | 147 | 3.2 | 6.4 | 0.00 | 0.00 | 0.00 | 71 | 1009.9 |
| 20260506004835 | 26 | 144 | 1.6 | 11.3 | 0.00 | 0.00 | 0.00 | 71 | 1009.9 |
| 20260506004731 | 26 | 145 | 1.6 | 12.9 | 0.00 | 0.00 | 0.00 | 71 | 1009.9 |
| 20260506004642 | 26 | 145 | 1.6 | 12.9 | 0.00 | 0.00 | 0.00 | 71 | 1009.9 |
| 20260506004605 | 26 | 142 | 1.6 | 12.9 | 0.00 | 0.00 | 0.00 | 71 | 1009.9 |
| 20260506004434 | 26 | 142 | 1.6 | 12.9 | 0.00 | 0.00 | 0.00 | 71 | 1009.9 |
| 20260506004400 | 26 | 142 | 3.2 | 12.9 | 0.00 | 0.00 | 0.00 | 71 | 1009.9 |
| 20260506004236 | 26 | 144 | 3.2 | 12.9 | 0.00 | 0.00 | 0.00 | 71 | 1009.9 |
| 20260506004147 | 26 | 143 | 4.8 | 12.9 | 0.00 | 0.00 | 0.00 | 70 | 1009.9 |
| 20260506004111 | 26 | 96 | 4.8 | 12.9 | 0.00 | 0.00 | 0.00 | 70 | 1009.9 |
| 20260506003936 | 26 | 144 | 3.2 | 12.9 | 0.00 | 0.00 | 0.00 | 70 | 1010.0 |
| 20260506003847 | 26 | 128 | 3.2 | 12.9 | 0.00 | 0.00 | 0.00 | 70 | 1009.9 |
| 20260506003732 | 26 | 155 | 3.2 | 12.9 | 0.00 | 0.00 | 0.00 | 70 | 1009.9 |
| 20260506003655 | 26 | 130 | 1.6 | 12.9 | 0.00 | 0.00 | 0.00 | 70 | 1009.9 |
| 20260506003556 | 26 | 136 | 3.2 | 12.9 | 0.00 | 0.00 | 0.00 | 70 | 1009.9 |
| 20260506003502 | 26 | 139 | 4.8 | 12.9 | 0.00 | 0.00 | 0.00 | 70 | 1009.9 |
| 20260506003414 | 26 | 139 | 4.8 | 12.9 | 0.00 | 0.00 | 0.00 | 70 | 1009.9 |
| 20260506003234 | 26 | 126 | 4.8 | 9.7 | 0.00 | 0.00 | 0.00 | 70 | 1009.9 |
| 20260506003206 | 26 | 121 | 3.2 | 9.7 | 0.00 | 0.00 | 0.00 | 70 | 1009.8 |
| 20260506003100 | 26 | 207 | 3.2 | 9.7 | 0.00 | 0.00 | 0.00 | 70 | 1009.8 |
| 20260506002945 | 26 | 124 | 1.6 | 9.7 | 0.00 | 0.00 | 0.00 | 70 | 1009.8 |
| 20260506002831 | 26 | 134 | 1.6 | 12.9 | 0.00 | 0.00 | 0.00 | 70 | 1009.8 |
| 20260506002743 | 26 | 134 | 3.2 | 12.9 | 0.00 | 0.00 | 0.00 | 70 | 1009.8 |
| 20260506002642 | 26 | 125 | 4.8 | 12.9 | 0.00 | 0.00 | 0.00 | 70 | 1009.9 |
| 20260506002545 | 26 | 128 | 3.2 | 12.9 | 0.00 | 0.00 | 0.00 | 70 | 1009.9 |
| 20260506002431 | 26 | 193 | 3.2 | 12.9 | 0.00 | 0.00 | 0.00 | 70 | 1009.9 |
| 20260506002336 | 26 | 171 | 6.4 | 12.9 | 0.00 | 0.00 | 0.00 | 70 | 1009.8 |
| 20260506002233 | 26 | 133 | 6.4 | 12.9 | 0.00 | 0.00 | 0.00 | 70 | 1009.9 |
| 20260506002145 | 26 | 148 | 4.8 | 12.9 | 0.00 | 0.00 | 0.00 | 70 | 1009.8 |
| 20260506002044 | 26 | 135 | 6.4 | 12.9 | 0.00 | 0.00 | 0.00 | 69 | 1009.8 |
| 20260506001931 | 26 | 115 | 4.8 | 12.9 | 0.00 | 0.00 | 0.00 | 69 | 1009.9 |
| 20260506001836 | 26 | 139 | 1.6 | 8.0 | 0.00 | 0.00 | 0.00 | 69 | 1009.9 |
| 20260506001740 | 26 | 139 | 3.2 | 8.0 | 0.00 | 0.00 | 0.00 | 69 | 1009.9 |
| 20260506001647 | 26 | 136 | 1.6 | 8.0 | 0.00 | 0.00 | 0.00 | 69 | 1009.9 |
| 20260506001534 | 26 | 166 | 3.2 | 8.0 | 0.00 | 0.00 | 0.00 | 69 | 1010.0 |
| 20260506001439 | 26 | 132 | 3.2 | 9.7 | 0.00 | 0.00 | 0.00 | 69 | 1009.9 |
| 20260506001345 | 26 | 156 | 3.2 | 9.7 | 0.00 | 0.00 | 0.00 | 69 | 1010.0 |
| 20260506001257 | 26 | 137 | 3.2 | 12.9 | 0.00 | 0.00 | 0.00 | 69 | 1010.1 |
| 20260506001151 | 26 | 136 | 3.2 | 12.9 | 0.00 | 0.00 | 0.00 | 69 | 1010.0 |
| 20260506001054 | 26 | 143 | 1.6 | 12.9 | 0.00 | 0.00 | 0.00 | 69 | 1010.0 |
| 20260506000944 | 26 | 128 | 3.2 | 12.9 | 0.00 | 0.00 | 0.00 | 69 | 1010.1 |
| 20260506000849 | 26 | 126 | 3.2 | 12.9 | 0.00 | 0.00 | 0.00 | 69 | 1010.0 |
| 20260506000735 | 26 | 115 | 3.2 | 12.9 | 0.00 | 0.00 | 0.00 | 69 | 1010.0 |
| 20260506000658 | 26 | 123 | 3.2 | 12.9 | 0.00 | 0.00 | 0.00 | 69 | 1010.0 |
| 20260506000535 | 26 | 178 | 3.2 | 12.9 | 0.00 | 0.00 | 0.00 | 69 | 1009.9 |
| 20260506000446 | 26 | 140 | 4.8 | 12.9 | 0.00 | 0.00 | 0.00 | 69 | 1010.0 |
| 20260506000334 | 26 | 138 | 4.8 | 12.9 | 0.00 | 0.00 | 0.00 | 69 | 1010.0 |
| 20260506000305 | 26 | 106 | 4.8 | 12.9 | 0.00 | 0.00 | 0.00 | 69 | 1010.0 |
| 20260506000206 | 26 | 127 | 4.8 | 12.9 | 0.00 | 0.00 | 0.00 | 69 | 1010.0 |
| 20260506000041 | 26 | 128 | 3.2 | 11.3 | 0.00 | 0.00 | 0.00 | 69 | 1010.0 |
| 20260505235948 | 26 | 130 | 3.2 | 11.3 | 0.00 | 0.00 | 0.00 | 69 | 1009.9 |
| 20260505235839 | 26 | 126 | 3.2 | 11.3 | 0.00 | 0.00 | 0.00 | 69 | 1010.0 |
| 20260505235737 | 26 | 152 | 4.8 | 11.3 | 0.00 | 0.00 | 0.00 | 69 | 1009.9 |
| 20260505235648 | 26 | 127 | 4.8 | 11.3 | 0.00 | 0.00 | 0.00 | 69 | 1010.0 |
| 20260505235611 | 26 | 122 | 4.8 | 11.3 | 0.00 | 0.00 | 0.00 | 69 | 1010.0 |
| 20260505235437 | 26 | 161 | 4.8 | 11.3 | 0.00 | 0.00 | 0.00 | 69 | 1010.1 |
| 20260505235342 | 26 | 115 | 3.2 | 11.3 | 0.00 | 0.00 | 0.00 | 69 | 1010.1 |
| 20260505235232 | 26 | 109 | 1.6 | 11.3 | 0.00 | 0.00 | 0.00 | 69 | 1010.1 |
| 20260505235156 | 26 | 139 | 3.2 | 11.3 | 0.00 | 0.00 | 0.00 | 69 | 1010.2 |
| 20260505235031 | 26 | 138 | 3.2 | 11.3 | 0.00 | 0.00 | 0.00 | 69 | 1010.1 |
| 20260505234935 | 26 | 140 | 3.2 | 11.3 | 0.00 | 0.00 | 0.00 | 69 | 1010.2 |
| 20260505234908 | 26 | 166 | 3.2 | 11.3 | 0.00 | 0.00 | 0.00 | 68 | 1010.2 |
| 20260505234732 | 26 | 130 | 4.8 | 12.9 | 0.00 | 0.00 | 0.00 | 68 | 1010.2 |
| 20260505234642 | 27 | 125 | 4.8 | 12.9 | 0.00 | 0.00 | 0.00 | 68 | 1010.3 |
| 20260505234536 | 27 | 138 | 4.8 | 12.9 | 0.00 | 0.00 | 0.00 | 68 | 1010.3 |
| 20260505234509 | 27 | 109 | 3.2 | 12.9 | 0.00 | 0.00 | 0.00 | 68 | 1010.2 |
| 20260505234335 | 27 | 140 | 4.8 | 12.9 | 0.00 | 0.00 | 0.00 | 68 | 1010.2 |
| 20260505234230 | 27 | 126 | 4.8 | 12.9 | 0.00 | 0.00 | 0.00 | 69 | 1010.1 |
| 20260505234141 | 27 | 138 | 6.4 | 12.9 | 0.00 | 0.00 | 0.00 | 68 | 1010.1 |
| 20260505234040 | 27 | 128 | 6.4 | 12.9 | 0.00 | 0.00 | 0.00 | 68 | 1010.2 |
| 20260505233956 | 27 | 137 | 6.4 | 12.9 | 0.00 | 0.00 | 0.00 | 68 | 1010.2 |
| 20260505233901 | 27 | 134 | 4.8 | 12.9 | 0.00 | 0.00 | 0.00 | 69 | 1010.1 |
| 20260505233735 | 27 | 173 | 6.4 | 12.9 | 0.00 | 0.00 | 0.00 | 69 | 1010.1 |
| 20260505233646 | 27 | 131 | 4.8 | 12.9 | 0.00 | 0.00 | 0.00 | 69 | 1010.2 |
| 20260505233541 | 27 | 149 | 4.8 | 12.9 | 0.00 | 0.00 | 0.00 | 69 | 1010.2 |
| 20260505233431 | 27 | 151 | 4.8 | 12.9 | 0.00 | 0.00 | 0.00 | 68 | 1010.2 |
| 20260505233344 | 27 | 143 | 4.8 | 12.9 | 0.00 | 0.00 | 0.00 | 68 | 1010.2 |
| 20260505233240 | 27 | 146 | 4.8 | 12.9 | 0.00 | 0.00 | 0.00 | 68 | 1010.2 |
| 20260505233154 | 27 | 161 | 4.8 | 14.5 | 0.00 | 0.00 | 0.00 | 68 | 1010.2 |